Time,TemperatureF,DewpointF,PressureIn,WindDirection,WindDirectionDegrees,WindSpeedMPH,WindSpeedGustMPH,Humidity,HourlyPrecipIn,Conditions,Clouds,dailyrainin,SoftwareType,DateUTC
2013-02-17 05:44:00,20.8,14.7,30.23,NW,325,1.0,1.0,77,0.00,,,0.00,Wunderground v.1.15,2013-02-17 10:44:00,
2013-02-17 05:49:00,20.6,14.5,30.23,NW,325,0.0,3.0,77,0.00,,,0.00,Wunderground v.1.15,2013-02-17 10:49:00,
2013-02-17 05:54:00,20.4,14.3,30.23,NW,326,2.0,2.0,77,0.00,,,0.00,Wunderground v.1.15,2013-02-17 10:54:00,
2013-02-17 05:59:00,20.3,14.2,30.23,NW,326,0.0,3.0,77,0.00,,,0.00,Wunderground v.1.15,2013-02-17 10:59:00,
2013-02-17 06:00:00,20.2,14.1,30.23,NW,326,0.0,3.0,77,0.00,,,0.00,Wunderground v.1.15,2013-02-17 11:00:00,
2013-02-17 06:04:00,20.1,14.0,30.24,NW,326,0.0,1.0,77,0.00,,,0.00,Wunderground v.1.15,2013-02-17 11:04:00,
2013-02-17 06:05:00,20.1,14.0,30.24,NW,326,0.0,1.0,77,0.00,,,0.00,Wunderground v.1.15,2013-02-17 11:05:00,
2013-02-17 06:09:00,19.9,13.9,30.24,NW,326,0.0,1.0,77,0.00,,,0.00,Wunderground v.1.15,2013-02-17 11:09:00,
2013-02-17 06:10:00,19.8,14.0,30.24,NW,325,0.0,0.0,78,0.00,,,0.00,Wunderground v.1.15,2013-02-17 11:10:00,
2013-02-17 06:14:00,19.7,14.0,30.24,NW,326,0.0,0.0,78,0.00,,,0.00,Wunderground v.1.15,2013-02-17 11:14:00,
2013-02-17 06:15:00,19.7,14.0,30.24,NW,326,0.0,0.0,78,0.00,,,0.00,Wunderground v.1.15,2013-02-17 11:15:00,
2013-02-17 06:19:00,19.7,14.0,30.24,NW,325,0.0,1.0,78,0.00,,,0.00,Wunderground v.1.15,2013-02-17 11:19:00,
2013-02-17 06:20:00,19.7,14.0,30.24,NW,326,0.0,0.0,78,0.00,,,0.00,Wunderground v.1.15,2013-02-17 11:20:00,
2013-02-17 06:24:00,19.5,13.8,30.24,NW,325,0.0,0.0,78,0.00,,,0.00,Wunderground v.1.15,2013-02-17 11:24:00,
2013-02-17 06:25:00,19.5,13.8,30.24,NW,325,0.0,0.0,78,0.00,,,0.00,Wunderground v.1.15,2013-02-17 11:25:00,
2013-02-17 06:29:00,19.4,13.7,30.24,NW,326,0.0,0.0,78,0.00,,,0.00,Wunderground v.1.15,2013-02-17 11:29:00,
2013-02-17 06:30:00,19.4,13.7,30.24,NW,326,0.0,0.0,78,0.00,,,0.00,Wunderground v.1.15,2013-02-17 11:30:00,
2013-02-17 06:35:00,19.2,13.5,30.25,NW,326,0.0,0.0,78,0.00,,,0.00,Wunderground v.1.15,2013-02-17 11:35:00,
2013-02-17 06:40:00,19.0,13.3,30.25,NW,326,0.0,0.0,78,0.00,,,0.00,Wunderground v.1.15,2013-02-17 11:40:00,
2013-02-17 06:45:00,18.7,13.0,30.25,NW,325,0.0,0.0,78,0.00,,,0.00,Wunderground v.1.15,2013-02-17 11:45:00,
2013-02-17 06:50:00,18.5,13.1,30.25,NW,325,0.0,0.0,79,0.00,,,0.00,Wunderground v.1.15,2013-02-17 11:50:00,
2013-02-17 06:51:00,18.4,13.0,30.25,NW,326,0.0,0.0,79,0.00,,,0.00,Wunderground v.1.15,2013-02-17 11:51:00,
2013-02-17 06:55:00,18.3,13.2,30.25,NW,326,0.0,0.0,80,0.00,,,0.00,Wunderground v.1.15,2013-02-17 11:55:00,
2013-02-17 06:56:00,18.2,13.1,30.25,NW,326,0.0,0.0,80,0.00,,,0.00,Wunderground v.1.15,2013-02-17 11:56:00,
2013-02-17 07:00:00,18.0,12.9,30.25,NW,326,0.0,0.0,80,0.00,,,0.00,Wunderground v.1.15,2013-02-17 12:00:00,
2013-02-17 07:01:00,18.0,12.9,30.25,NW,326,0.0,0.0,80,0.00,,,0.00,Wunderground v.1.15,2013-02-17 12:01:00,
2013-02-17 07:05:00,17.8,13.0,30.25,NW,326,0.0,0.0,81,0.00,,,0.00,Wunderground v.1.15,2013-02-17 12:05:00,
2013-02-17 07:06:00,17.8,13.0,30.25,NW,325,0.0,0.0,81,0.00,,,0.00,Wunderground v.1.15,2013-02-17 12:06:00,
2013-02-17 07:10:00,17.7,12.9,30.25,NW,325,0.0,0.0,81,0.00,,,0.00,Wunderground v.1.15,2013-02-17 12:10:00,
2013-02-17 07:11:00,17.7,12.9,30.25,NW,326,0.0,0.0,81,0.00,,,0.00,Wunderground v.1.15,2013-02-17 12:11:00,
2013-02-17 07:16:00,17.6,12.8,30.25,NW,326,0.0,0.0,81,0.00,,,0.00,Wunderground v.1.15,2013-02-17 12:16:00,
2013-02-17 07:21:00,17.5,12.9,30.25,NW,326,0.0,0.0,82,0.00,,,0.00,Wunderground v.1.15,2013-02-17 12:21:00,
2013-02-17 07:26:00,17.3,12.7,30.25,NW,326,0.0,0.0,82,0.00,,,0.00,Wunderground v.1.15,2013-02-17 12:26:00,
2013-02-17 07:31:00,17.1,12.6,30.26,NW,326,0.0,0.0,82,0.00,,,0.00,Wunderground v.1.15,2013-02-17 12:31:00,
2013-02-17 07:36:00,16.9,12.6,30.26,NW,326,0.0,0.0,83,0.00,,,0.00,Wunderground v.1.15,2013-02-17 12:36:00,
2013-02-17 07:37:00,16.9,12.6,30.26,NW,326,0.0,0.0,83,0.00,,,0.00,Wunderground v.1.15,2013-02-17 12:37:00,
2013-02-17 07:41:00,16.8,12.5,30.26,NW,326,0.0,0.0,83,0.00,,,0.00,Wunderground v.1.15,2013-02-17 12:41:00,
2013-02-17 07:42:00,16.8,12.5,30.26,NW,325,0.0,0.0,83,0.00,,,0.00,Wunderground v.1.15,2013-02-17 12:42:00,
2013-02-17 07:46:00,16.7,12.4,30.26,NW,326,0.0,0.0,83,0.00,,,0.00,Wunderground v.1.15,2013-02-17 12:46:00,
2013-02-17 07:47:00,16.7,12.4,30.26,NW,325,0.0,0.0,83,0.00,,,0.00,Wunderground v.1.15,2013-02-17 12:47:00,
2013-02-17 07:51:00,16.6,12.6,30.27,NW,326,0.0,0.0,84,0.00,,,0.00,Wunderground v.1.15,2013-02-17 12:51:00,
2013-02-17 07:52:00,16.6,12.6,30.27,NW,325,0.0,0.0,84,0.00,,,0.00,Wunderground v.1.15,2013-02-17 12:52:00,
2013-02-17 07:57:00,16.5,12.5,30.27,NW,326,0.0,0.0,84,0.00,,,0.00,Wunderground v.1.15,2013-02-17 12:57:00,
2013-02-17 08:02:00,16.4,12.7,30.27,NW,325,0.0,0.0,85,0.00,,,0.00,Wunderground v.1.15,2013-02-17 13:02:00,
2013-02-17 08:07:00,16.4,12.7,30.28,NW,326,0.0,0.0,85,0.00,,,0.00,Wunderground v.1.15,2013-02-17 13:07:00,
2013-02-17 08:12:00,16.5,12.8,30.28,NW,326,0.0,0.0,85,0.00,,,0.00,Wunderground v.1.15,2013-02-17 13:12:00,
2013-02-17 08:17:00,16.6,12.9,30.28,NW,326,0.0,0.0,85,0.00,,,0.00,Wunderground v.1.15,2013-02-17 13:17:00,
2013-02-17 08:22:00,16.8,13.3,30.28,NW,326,0.0,0.0,86,0.00,,,0.00,Wunderground v.1.15,2013-02-17 13:22:00,
2013-02-17 08:23:00,16.9,13.4,30.28,NW,325,0.0,0.0,86,0.00,,,0.00,Wunderground v.1.15,2013-02-17 13:23:00,
2013-02-17 08:27:00,17.3,14.1,30.28,NW,325,0.0,0.0,87,0.00,,,0.00,Wunderground v.1.15,2013-02-17 13:27:00,
2013-02-17 08:28:00,17.3,14.1,30.28,NW,325,0.0,0.0,87,0.00,,,0.00,Wunderground v.1.15,2013-02-17 13:28:00,
2013-02-17 08:32:00,17.9,14.7,30.28,NW,326,0.0,0.0,87,0.00,,,0.00,Wunderground v.1.15,2013-02-17 13:32:00,
2013-02-17 08:33:00,17.9,14.7,30.28,NW,326,0.0,0.0,87,0.00,,,0.00,Wunderground v.1.15,2013-02-17 13:33:00,
2013-02-17 08:37:00,18.6,15.4,30.28,NW,322,0.0,0.0,87,0.00,,,0.00,Wunderground v.1.15,2013-02-17 13:37:00,
2013-02-17 08:38:00,18.6,15.4,30.28,NW,322,0.0,1.0,87,0.00,,,0.00,Wunderground v.1.15,2013-02-17 13:38:00,
2013-02-17 08:43:00,19.2,16.0,30.28,NW,322,0.0,1.0,87,0.00,,,0.00,Wunderground v.1.15,2013-02-17 13:43:00,
2013-02-17 08:48:00,19.8,16.0,30.29,NW,322,2.0,3.0,85,0.00,,,0.00,Wunderground v.1.15,2013-02-17 13:48:00,
2013-02-17 08:53:00,20.4,16.3,30.29,NW,322,0.0,1.0,84,0.00,,,0.00,Wunderground v.1.15,2013-02-17 13:53:00,
2013-02-17 08:58:00,20.9,16.3,30.29,NW,322,1.0,2.0,82,0.00,,,0.00,Wunderground v.1.15,2013-02-17 13:58:00,
2013-02-17 08:59:00,20.9,16.3,30.29,NW,322,1.0,2.0,82,0.00,,,0.00,Wunderground v.1.15,2013-02-17 13:59:00,
2013-02-17 09:03:00,21.5,16.6,30.29,North,3,3.0,5.0,81,0.00,,,0.00,Wunderground v.1.15,2013-02-17 14:03:00,
2013-02-17 09:04:00,21.6,16.4,30.29,North,3,0.0,5.0,80,0.00,,,0.00,Wunderground v.1.15,2013-02-17 14:04:00,
2013-02-17 09:08:00,21.8,16.3,30.30,North,3,2.0,5.0,79,0.00,,,0.00,Wunderground v.1.15,2013-02-17 14:08:00,
2013-02-17 09:09:00,21.8,16.3,30.30,North,2,2.0,5.0,79,0.00,,,0.00,Wunderground v.1.15,2013-02-17 14:09:00,
2013-02-17 09:14:00,22.2,16.4,30.30,NNW,330,0.0,4.0,78,0.00,,,0.00,Wunderground v.1.15,2013-02-17 14:14:00,
2013-02-17 09:19:00,22.4,16.3,30.30,NW,318,0.0,5.0,77,0.00,,,0.00,Wunderground v.1.15,2013-02-17 14:19:00,
2013-02-17 09:24:00,22.5,16.4,30.30,WNW,296,3.0,4.0,77,0.00,,,0.00,Wunderground v.1.15,2013-02-17 14:24:00,
2013-02-17 09:25:00,22.5,16.4,30.30,WNW,297,2.0,4.0,77,0.00,,,0.00,Wunderground v.1.15,2013-02-17 14:25:00,
2013-02-17 09:29:00,22.7,16.6,30.30,WNW,298,0.0,4.0,77,0.00,,,0.00,Wunderground v.1.15,2013-02-17 14:29:00,
2013-02-17 09:30:00,22.7,16.6,30.30,WNW,298,0.0,1.0,77,0.00,,,0.00,Wunderground v.1.15,2013-02-17 14:30:00,
2013-02-17 09:34:00,23.0,16.6,30.30,WNW,298,0.0,2.0,76,0.00,,,0.00,Wunderground v.1.15,2013-02-17 14:34:00,
2013-02-17 09:35:00,23.1,17.0,30.30,WNW,298,0.0,2.0,77,0.00,,,0.00,Wunderground v.1.15,2013-02-17 14:35:00,
2013-02-17 09:39:00,23.3,16.9,30.30,WNW,292,3.0,4.0,76,0.00,,,0.00,Wunderground v.1.15,2013-02-17 14:39:00,
2013-02-17 09:40:00,23.3,16.9,30.31,WNW,292,3.0,4.0,76,0.00,,,0.00,Wunderground v.1.15,2013-02-17 14:40:00,
2013-02-17 09:44:00,23.3,16.9,30.31,West,269,2.0,4.0,76,0.00,,,0.00,Wunderground v.1.15,2013-02-17 14:44:00,
2013-02-17 09:45:00,23.3,16.9,30.31,West,269,3.0,4.0,76,0.00,,,0.00,Wunderground v.1.15,2013-02-17 14:45:00,
2013-02-17 09:49:00,23.3,16.9,30.31,WSW,244,2.0,6.0,76,0.00,,,0.00,Wunderground v.1.15,2013-02-17 14:49:00,
2013-02-17 09:50:00,23.4,16.9,30.31,WSW,244,0.0,2.0,76,0.00,,,0.00,Wunderground v.1.15,2013-02-17 14:50:00,
2013-02-17 09:54:00,23.6,16.8,30.31,WSW,244,3.0,5.0,75,0.00,,,0.00,Wunderground v.1.15,2013-02-17 14:54:00,
2013-02-17 09:55:00,23.6,16.8,30.31,WSW,244,4.0,5.0,75,0.00,,,0.00,Wunderground v.1.15,2013-02-17 14:55:00,
2013-02-17 09:59:00,23.6,16.5,30.30,WSW,251,4.0,5.0,74,0.00,,,0.00,Wunderground v.1.15,2013-02-17 14:59:00,
2013-02-17 10:00:00,23.6,16.5,30.31,WSW,251,4.0,4.0,74,0.00,,,0.00,Wunderground v.1.15,2013-02-17 15:00:00,
2013-02-17 10:01:00,23.6,16.8,30.31,WSW,246,4.0,5.0,75,0.00,,,0.00,Wunderground v.1.15,2013-02-17 15:01:00,
2013-02-17 10:04:00,23.9,17.1,30.31,WSW,246,0.0,5.0,75,0.00,,,0.00,Wunderground v.1.15,2013-02-17 15:04:00,
2013-02-17 10:05:00,24.0,17.2,30.31,WSW,246,1.0,5.0,75,0.00,,,0.00,Wunderground v.1.15,2013-02-17 15:05:00,
2013-02-17 10:06:00,24.2,17.4,30.30,WSW,246,0.0,5.0,75,0.00,,,0.00,Wunderground v.1.15,2013-02-17 15:06:00,
2013-02-17 10:09:00,24.8,17.7,30.31,WSW,246,2.0,5.0,74,0.00,,,0.00,Wunderground v.1.15,2013-02-17 15:09:00,
2013-02-17 10:10:00,24.8,17.7,30.31,WSW,246,1.0,3.0,74,0.00,,,0.00,Wunderground v.1.15,2013-02-17 15:10:00,
2013-02-17 10:11:00,24.9,17.8,30.30,WSW,246,4.0,5.0,74,0.00,,,0.00,Wunderground v.1.15,2013-02-17 15:11:00,
2013-02-17 10:15:00,24.8,17.4,30.30,WSW,249,4.0,6.0,73,0.00,,,0.00,Wunderground v.1.15,2013-02-17 15:15:00,
2013-02-17 10:16:00,24.9,17.5,30.30,WSW,250,1.0,6.0,73,0.00,,,0.00,Wunderground v.1.15,2013-02-17 15:16:00,
2013-02-17 10:20:00,25.1,17.0,30.30,SW,230,1.0,6.0,71,0.00,,,0.00,Wunderground v.1.15,2013-02-17 15:20:00,
2013-02-17 10:21:00,25.4,17.3,30.30,SW,231,0.0,2.0,71,0.00,,,0.00,Wunderground v.1.15,2013-02-17 15:21:00,
2013-02-17 10:25:00,25.7,17.3,30.30,WSW,240,0.0,3.0,70,0.00,,,0.00,Wunderground v.1.15,2013-02-17 15:25:00,
2013-02-17 10:27:00,25.7,16.6,30.30,WSW,240,0.0,3.0,68,0.00,,,0.00,Wunderground v.1.15,2013-02-17 15:27:00,
2013-02-17 10:30:00,25.7,16.9,30.30,WSW,246,0.0,1.0,69,0.00,,,0.00,Wunderground v.1.15,2013-02-17 15:30:00,
2013-02-17 10:32:00,25.9,17.5,30.30,WSW,246,1.0,3.0,70,0.00,,,0.00,Wunderground v.1.15,2013-02-17 15:32:00,
2013-02-17 10:35:00,26.2,17.4,30.30,NNW,330,2.0,5.0,69,0.00,,,0.00,Wunderground v.1.15,2013-02-17 15:35:00,
2013-02-17 10:36:00,26.2,17.4,30.30,NNW,330,0.0,5.0,69,0.00,,,0.00,Wunderground v.1.15,2013-02-17 15:36:00,
2013-02-17 10:37:00,26.3,17.5,30.30,NNW,331,2.0,5.0,69,0.00,,,0.00,Wunderground v.1.15,2013-02-17 15:37:00,
2013-02-17 10:40:00,26.9,18.1,30.30,NNW,332,0.0,1.0,69,0.00,,,0.00,Wunderground v.1.15,2013-02-17 15:40:00,
2013-02-17 10:41:00,27.0,18.2,30.30,NNW,332,0.0,1.0,69,0.00,,,0.00,Wunderground v.1.15,2013-02-17 15:41:00,
2013-02-17 10:42:00,27.3,18.1,30.30,NNW,332,0.0,1.0,68,0.00,,,0.00,Wunderground v.1.15,2013-02-17 15:42:00,
2013-02-17 10:45:00,27.9,18.7,30.30,East,92,2.0,3.0,68,0.00,,,0.00,Wunderground v.1.15,2013-02-17 15:45:00,
2013-02-17 10:46:00,28.0,18.8,30.30,East,92,0.0,3.0,68,0.00,,,0.00,Wunderground v.1.15,2013-02-17 15:46:00,
2013-02-17 10:48:00,28.5,18.9,30.30,WSW,239,4.0,5.0,67,0.00,,,0.00,Wunderground v.1.15,2013-02-17 15:48:00,
2013-02-17 10:50:00,28.2,17.2,30.30,West,275,4.0,5.0,63,0.00,,,0.00,Wunderground v.1.15,2013-02-17 15:50:00,
2013-02-17 10:51:00,28.0,17.0,30.30,West,275,2.0,5.0,63,0.00,,,0.00,Wunderground v.1.15,2013-02-17 15:51:00,
2013-02-17 10:53:00,27.7,16.7,30.31,West,278,3.0,5.0,63,0.00,,,0.00,Wunderground v.1.15,2013-02-17 15:53:00,
2013-02-17 10:56:00,27.5,16.9,30.31,West,280,3.0,5.0,64,0.00,,,0.00,Wunderground v.1.15,2013-02-17 15:56:00,
2013-02-17 10:58:00,27.4,16.8,30.31,WNW,287,0.0,5.0,64,0.00,,,0.00,Wunderground v.1.15,2013-02-17 15:58:00,
2013-02-17 11:00:00,27.8,16.8,30.31,WNW,288,0.0,2.0,63,0.00,,,0.00,Wunderground v.1.15,2013-02-17 16:00:00,
2013-02-17 11:01:00,27.8,16.8,30.31,WNW,287,2.0,3.0,63,0.00,,,0.00,Wunderground v.1.15,2013-02-17 16:01:00,
2013-02-17 11:03:00,28.2,17.2,30.31,West,273,5.0,5.0,63,0.00,,,0.00,Wunderground v.1.15,2013-02-17 16:03:00,
2013-02-17 11:06:00,28.0,15.5,30.31,West,273,0.0,5.0,59,0.00,,,0.00,Wunderground v.1.15,2013-02-17 16:06:00,
2013-02-17 11:07:00,28.0,15.9,30.31,West,280,2.0,5.0,60,0.00,,,0.00,Wunderground v.1.15,2013-02-17 16:07:00,
2013-02-17 11:09:00,27.9,15.8,30.31,West,280,1.0,5.0,60,0.00,,,0.00,Wunderground v.1.15,2013-02-17 16:09:00,
2013-02-17 11:11:00,27.8,15.7,30.31,WSW,257,3.0,7.0,60,0.00,,,0.00,Wunderground v.1.15,2013-02-17 16:11:00,
2013-02-17 11:12:00,27.7,15.6,30.31,WSW,258,2.0,7.0,60,0.00,,,0.00,Wunderground v.1.15,2013-02-17 16:12:00,
2013-02-17 11:14:00,27.7,16.4,30.31,WSW,257,1.0,7.0,62,0.00,,,0.00,Wunderground v.1.15,2013-02-17 16:14:00,
2013-02-17 11:16:00,27.9,16.2,30.31,WSW,251,2.0,7.0,61,0.00,,,0.00,Wunderground v.1.15,2013-02-17 16:16:00,
2013-02-17 11:17:00,28.0,15.9,30.31,WSW,251,1.0,7.0,60,0.00,,,0.00,Wunderground v.1.15,2013-02-17 16:17:00,
2013-02-17 11:19:00,28.2,16.8,30.31,WSW,251,0.0,7.0,62,0.00,,,0.00,Wunderground v.1.15,2013-02-17 16:19:00,
2013-02-17 11:21:00,28.6,17.2,30.31,WSW,251,2.0,3.0,62,0.00,,,0.00,Wunderground v.1.15,2013-02-17 16:21:00,
2013-02-17 11:22:00,28.6,16.8,30.31,WSW,251,3.0,4.0,61,0.00,,,0.00,Wunderground v.1.15,2013-02-17 16:22:00,
2013-02-17 11:24:00,28.5,16.4,30.31,WSW,251,3.0,4.0,60,0.00,,,0.00,Wunderground v.1.15,2013-02-17 16:24:00,
2013-02-17 11:26:00,28.5,16.4,30.31,WSW,251,0.0,4.0,60,0.00,,,0.00,Wunderground v.1.15,2013-02-17 16:26:00,
2013-02-17 11:27:00,28.5,16.4,30.31,WSW,251,0.0,4.0,60,0.00,,,0.00,Wunderground v.1.15,2013-02-17 16:27:00,
2013-02-17 11:29:00,28.8,17.0,30.31,WSW,251,0.0,4.0,61,0.00,,,0.00,Wunderground v.1.15,2013-02-17 16:29:00,
2013-02-17 11:31:00,29.4,17.2,30.31,WSW,245,3.0,6.0,60,0.00,,,0.00,Wunderground v.1.15,2013-02-17 16:31:00,
2013-02-17 11:32:00,29.6,17.4,30.31,WSW,245,3.0,6.0,60,0.00,,,0.00,Wunderground v.1.15,2013-02-17 16:32:00,
2013-02-17 11:34:00,29.9,17.7,30.31,WSW,245,1.0,6.0,60,0.00,,,0.00,Wunderground v.1.15,2013-02-17 16:34:00,
2013-02-17 11:36:00,30.1,18.3,30.31,WSW,245,0.0,6.0,61,0.00,,,0.00,Wunderground v.1.15,2013-02-17 16:36:00,
2013-02-17 11:37:00,30.2,18.4,30.31,WSW,253,4.0,6.0,61,0.00,,,0.00,Wunderground v.1.15,2013-02-17 16:37:00,
2013-02-17 11:39:00,30.2,17.2,30.31,West,263,2.0,6.0,58,0.00,,,0.00,Wunderground v.1.15,2013-02-17 16:39:00,
2013-02-17 11:41:00,30.2,17.6,30.31,West,263,1.0,3.0,59,0.00,,,0.00,Wunderground v.1.15,2013-02-17 16:41:00,
2013-02-17 11:42:00,30.2,17.6,30.31,West,263,2.0,3.0,59,0.00,,,0.00,Wunderground v.1.15,2013-02-17 16:42:00,
2013-02-17 11:44:00,30.4,17.4,30.31,WNW,283,1.0,5.0,58,0.00,,,0.00,Wunderground v.1.15,2013-02-17 16:44:00,
2013-02-17 11:46:00,30.4,17.0,30.31,WNW,283,0.0,5.0,57,0.00,,,0.00,Wunderground v.1.15,2013-02-17 16:46:00,
2013-02-17 11:47:00,30.4,17.0,30.31,WNW,283,2.0,5.0,57,0.00,,,0.00,Wunderground v.1.15,2013-02-17 16:47:00,
2013-02-17 11:49:00,30.3,16.9,30.31,NW,321,4.0,6.0,57,0.00,,,0.00,Wunderground v.1.15,2013-02-17 16:49:00,
2013-02-17 11:51:00,30.3,16.9,30.31,NNW,328,0.0,4.0,57,0.00,,,0.00,Wunderground v.1.15,2013-02-17 16:51:00,
2013-02-17 11:52:00,30.3,17.7,30.31,NNW,328,0.0,4.0,59,0.00,,,0.00,Wunderground v.1.15,2013-02-17 16:52:00,
2013-02-17 11:54:00,30.5,17.5,30.31,West,265,1.0,5.0,58,0.00,,,0.00,Wunderground v.1.15,2013-02-17 16:54:00,
2013-02-17 11:56:00,30.8,17.7,30.31,WSW,240,2.0,6.0,58,0.00,,,0.00,Wunderground v.1.15,2013-02-17 16:56:00,
2013-02-17 11:57:00,30.9,17.8,30.31,WSW,241,4.0,6.0,58,0.00,,,0.00,Wunderground v.1.15,2013-02-17 16:57:00,
2013-02-17 11:59:00,31.2,18.1,30.31,West,263,0.0,6.0,58,0.00,,,0.00,Wunderground v.1.15,2013-02-17 16:59:00,
2013-02-17 12:00:00,31.2,18.5,30.30,West,263,0.0,6.0,59,0.00,,,0.00,Wunderground v.1.15,2013-02-17 17:00:00,
2013-02-17 12:01:00,31.4,18.7,30.30,WSW,245,5.0,6.0,59,0.00,,,0.00,Wunderground v.1.15,2013-02-17 17:01:00,
2013-02-17 12:02:00,31.6,18.9,30.30,WSW,241,5.0,7.0,59,0.00,,,0.00,Wunderground v.1.15,2013-02-17 17:02:00,
2013-02-17 12:04:00,31.7,18.6,30.30,SW,219,8.0,9.0,58,0.00,,,0.00,Wunderground v.1.15,2013-02-17 17:04:00,
2013-02-17 12:05:00,31.7,18.6,30.30,SW,219,6.0,9.0,58,0.00,,,0.00,Wunderground v.1.15,2013-02-17 17:05:00,
2013-02-17 12:06:00,31.9,18.8,30.30,SW,221,5.0,9.0,58,0.00,,,0.00,Wunderground v.1.15,2013-02-17 17:06:00,
2013-02-17 12:08:00,32.1,19.0,30.30,SW,230,0.0,9.0,58,0.00,,,0.00,Wunderground v.1.15,2013-02-17 17:08:00,
2013-02-17 12:10:00,32.3,19.2,30.30,SW,226,3.0,9.0,58,0.00,,,0.00,Wunderground v.1.15,2013-02-17 17:10:00,
2013-02-17 12:11:00,32.7,18.7,30.30,SW,222,3.0,5.0,56,0.00,,,0.00,Wunderground v.1.15,2013-02-17 17:11:00,
2013-02-17 12:13:00,32.9,18.9,30.30,SW,222,0.0,5.0,56,0.00,,,0.00,Wunderground v.1.15,2013-02-17 17:13:00,
2013-02-17 12:15:00,33.3,19.3,30.30,SW,222,0.0,5.0,56,0.00,,,0.00,Wunderground v.1.15,2013-02-17 17:15:00,
2013-02-17 12:17:00,33.5,19.5,30.30,SW,227,3.0,5.0,56,0.00,,,0.00,Wunderground v.1.15,2013-02-17 17:17:00,
2013-02-17 12:18:00,33.5,18.6,30.30,SW,227,1.0,5.0,54,0.00,,,0.00,Wunderground v.1.15,2013-02-17 17:18:00,
2013-02-17 12:20:00,33.5,18.2,30.30,SW,236,2.0,3.0,53,0.00,,,0.00,Wunderground v.1.15,2013-02-17 17:20:00,
2013-02-17 12:22:00,33.4,18.5,30.30,West,264,4.0,5.0,54,0.00,,,0.00,Wunderground v.1.15,2013-02-17 17:22:00,
2013-02-17 12:23:00,33.4,18.5,30.30,West,265,0.0,5.0,54,0.00,,,0.00,Wunderground v.1.15,2013-02-17 17:23:00,
2013-02-17 12:25:00,33.3,18.0,30.30,West,265,4.0,5.0,53,0.00,,,0.00,Wunderground v.1.15,2013-02-17 17:25:00,
2013-02-17 12:27:00,33.2,18.3,30.29,West,278,1.0,5.0,54,0.00,,,0.00,Wunderground v.1.15,2013-02-17 17:27:00,
2013-02-17 12:28:00,33.2,18.3,30.29,WNW,284,3.0,5.0,54,0.00,,,0.00,Wunderground v.1.15,2013-02-17 17:28:00,
2013-02-17 12:30:00,33.2,17.9,30.29,NW,314,3.0,3.0,53,0.00,,,0.00,Wunderground v.1.15,2013-02-17 17:30:00,
2013-02-17 12:32:00,33.3,18.4,30.29,North,353,2.0,5.0,54,0.00,,,0.00,Wunderground v.1.15,2013-02-17 17:32:00,
2013-02-17 12:33:00,33.4,18.9,30.29,WNW,302,3.0,6.0,55,0.00,,,0.00,Wunderground v.1.15,2013-02-17 17:33:00,
2013-02-17 12:35:00,33.5,18.2,30.29,West,273,5.0,10.0,53,0.00,,,0.00,Wunderground v.1.15,2013-02-17 17:35:00,
2013-02-17 12:37:00,33.6,19.1,30.29,NW,311,3.0,10.0,55,0.00,,,0.00,Wunderground v.1.15,2013-02-17 17:37:00,
2013-02-17 12:38:00,33.6,19.1,30.29,West,278,5.0,10.0,55,0.00,,,0.00,Wunderground v.1.15,2013-02-17 17:38:00,
2013-02-17 12:40:00,33.9,19.0,30.29,WNW,283,1.0,4.0,54,0.00,,,0.00,Wunderground v.1.15,2013-02-17 17:40:00,
2013-02-17 12:41:00,33.9,19.4,30.29,WNW,283,2.0,4.0,55,0.00,,,0.00,Wunderground v.1.15,2013-02-17 17:41:00,
2013-02-17 12:42:00,34.0,19.1,30.29,WNW,284,0.0,4.0,54,0.00,,,0.00,Wunderground v.1.15,2013-02-17 17:42:00,
2013-02-17 12:43:00,34.1,19.2,30.29,WNW,285,1.0,4.0,54,0.00,,,0.00,Wunderground v.1.15,2013-02-17 17:43:00,
2013-02-17 12:46:00,34.4,19.0,30.29,WSW,252,0.0,7.0,53,0.00,,,0.00,Wunderground v.1.15,2013-02-17 17:46:00,
2013-02-17 12:47:00,34.4,19.9,30.29,WSW,252,2.0,7.0,55,0.00,,,0.00,Wunderground v.1.15,2013-02-17 17:47:00,
2013-02-17 12:48:00,34.4,19.9,30.29,NW,322,2.0,7.0,55,0.00,,,0.00,Wunderground v.1.15,2013-02-17 17:48:00,
2013-02-17 12:51:00,34.4,19.5,30.28,West,281,0.0,6.0,54,0.00,,,0.00,Wunderground v.1.15,2013-02-17 17:51:00,
2013-02-17 12:52:00,34.5,19.5,30.29,West,280,3.0,6.0,54,0.00,,,0.00,Wunderground v.1.15,2013-02-17 17:52:00,
2013-02-17 12:53:00,34.6,20.1,30.29,NNW,330,6.0,9.0,55,0.00,,,0.00,Wunderground v.1.15,2013-02-17 17:53:00,
2013-02-17 12:56:00,34.4,19.0,30.28,WNW,282,4.0,9.0,53,0.00,,,0.00,Wunderground v.1.15,2013-02-17 17:56:00,
2013-02-17 12:57:00,34.4,19.5,30.28,West,263,5.0,9.0,54,0.00,,,0.00,Wunderground v.1.15,2013-02-17 17:57:00,
2013-02-17 12:58:00,34.4,19.5,30.28,West,259,6.0,9.0,54,0.00,,,0.00,Wunderground v.1.15,2013-02-17 17:58:00,
2013-02-17 13:01:00,34.1,19.2,30.28,WNW,286,4.0,5.0,54,0.00,,,0.00,Wunderground v.1.15,2013-02-17 18:01:00,
2013-02-17 13:02:00,34.0,19.1,30.28,WNW,287,1.0,6.0,54,0.00,,,0.00,Wunderground v.1.15,2013-02-17 18:02:00,
2013-02-17 13:03:00,34.0,18.6,30.28,WNW,282,0.0,6.0,53,0.00,,,0.00,Wunderground v.1.15,2013-02-17 18:03:00,
2013-02-17 13:06:00,33.9,19.4,30.28,WNW,295,6.0,6.0,55,0.00,,,0.00,Wunderground v.1.15,2013-02-17 18:06:00,
2013-02-17 13:07:00,33.9,19.4,30.28,WNW,298,4.0,6.0,55,0.00,,,0.00,Wunderground v.1.15,2013-02-17 18:07:00,
2013-02-17 13:08:00,34.0,19.5,30.28,WNW,286,0.0,6.0,55,0.00,,,0.00,Wunderground v.1.15,2013-02-17 18:08:00,
2013-02-17 13:11:00,34.4,19.5,30.28,WNW,290,6.0,7.0,54,0.00,,,0.00,Wunderground v.1.15,2013-02-17 18:11:00,
2013-02-17 13:12:00,34.4,19.5,30.28,WNW,294,4.0,7.0,54,0.00,,,0.00,Wunderground v.1.15,2013-02-17 18:12:00,
2013-02-17 13:13:00,34.4,19.0,30.28,WNW,294,1.0,7.0,53,0.00,,,0.00,Wunderground v.1.15,2013-02-17 18:13:00,
2013-02-17 13:14:00,34.4,19.0,30.28,WNW,292,3.0,7.0,53,0.00,,,0.00,Wunderground v.1.15,2013-02-17 18:14:00,
2013-02-17 13:17:00,34.4,19.5,30.28,WNW,287,4.0,7.0,54,0.00,,,0.00,Wunderground v.1.15,2013-02-17 18:17:00,
2013-02-17 13:18:00,34.5,19.1,30.28,West,280,1.0,7.0,53,0.00,,,0.00,Wunderground v.1.15,2013-02-17 18:18:00,
2013-02-17 13:19:00,34.8,19.8,30.27,WNW,301,5.0,7.0,54,0.00,,,0.00,Wunderground v.1.15,2013-02-17 18:19:00,
2013-02-17 13:22:00,34.7,19.3,30.27,WNW,292,2.0,4.0,53,0.00,,,0.00,Wunderground v.1.15,2013-02-17 18:22:00,
2013-02-17 13:23:00,34.8,18.9,30.27,WNW,292,0.0,4.0,52,0.00,,,0.00,Wunderground v.1.15,2013-02-17 18:23:00,
2013-02-17 13:24:00,34.8,19.8,30.27,WNW,288,4.0,4.0,54,0.00,,,0.00,Wunderground v.1.15,2013-02-17 18:24:00,
2013-02-17 13:27:00,35.5,20.0,30.27,WNW,290,6.0,6.0,53,0.00,,,0.00,Wunderground v.1.15,2013-02-17 18:27:00,
2013-02-17 13:28:00,35.6,19.2,30.27,West,267,3.0,10.0,51,0.00,,,0.00,Wunderground v.1.15,2013-02-17 18:28:00,
2013-02-17 13:29:00,35.6,19.2,30.27,NW,311,5.0,10.0,51,0.00,,,0.00,Wunderground v.1.15,2013-02-17 18:29:00,
2013-02-17 13:32:00,35.7,19.8,30.27,NW,309,4.0,4.0,52,0.00,,,0.00,Wunderground v.1.15,2013-02-17 18:32:00,
2013-02-17 13:33:00,35.7,19.3,30.27,WNW,300,3.0,6.0,51,0.00,,,0.00,Wunderground v.1.15,2013-02-17 18:33:00,
2013-02-17 13:34:00,35.7,19.3,30.27,WNW,292,5.0,6.0,51,0.00,,,0.00,Wunderground v.1.15,2013-02-17 18:34:00,
2013-02-17 13:37:00,35.7,19.8,30.27,WNW,287,0.0,6.0,52,0.00,,,0.00,Wunderground v.1.15,2013-02-17 18:37:00,
2013-02-17 13:38:00,35.8,19.4,30.27,WNW,288,0.0,6.0,51,0.00,,,0.00,Wunderground v.1.15,2013-02-17 18:38:00,
2013-02-17 13:39:00,35.8,20.3,30.26,WNW,288,2.0,6.0,53,0.00,,,0.00,Wunderground v.1.15,2013-02-17 18:39:00,
2013-02-17 13:42:00,36.1,20.2,30.26,WNW,301,5.0,5.0,52,0.00,,,0.00,Wunderground v.1.15,2013-02-17 18:42:00,
2013-02-17 13:43:00,36.2,19.3,30.26,West,276,5.0,7.0,50,0.00,,,0.00,Wunderground v.1.15,2013-02-17 18:43:00,
2013-02-17 13:44:00,36.2,19.3,30.26,West,262,6.0,7.0,50,0.00,,,0.00,Wunderground v.1.15,2013-02-17 18:44:00,
2013-02-17 13:47:00,36.5,20.1,30.26,West,278,2.0,7.0,51,0.00,,,0.00,Wunderground v.1.15,2013-02-17 18:47:00,
2013-02-17 13:48:00,36.7,20.3,30.26,WNW,302,4.0,7.0,51,0.00,,,0.00,Wunderground v.1.15,2013-02-17 18:48:00,
2013-02-17 13:49:00,36.8,19.9,30.26,NW,311,4.0,7.0,50,0.00,,,0.00,Wunderground v.1.15,2013-02-17 18:49:00,
2013-02-17 13:52:00,36.9,20.0,30.26,NNW,333,2.0,6.0,50,0.00,,,0.00,Wunderground v.1.15,2013-02-17 18:52:00,
2013-02-17 13:53:00,36.9,20.0,30.26,NNW,333,0.0,6.0,50,0.00,,,0.00,Wunderground v.1.15,2013-02-17 18:53:00,
2013-02-17 13:54:00,36.9,20.4,30.26,NNW,333,0.0,6.0,51,0.00,,,0.00,Wunderground v.1.15,2013-02-17 18:54:00,
2013-02-17 13:57:00,36.8,19.9,30.26,NNW,337,6.0,7.0,50,0.00,,,0.00,Wunderground v.1.15,2013-02-17 18:57:00,
2013-02-17 13:58:00,36.6,19.2,30.26,NNW,338,3.0,7.0,49,0.00,,,0.00,Wunderground v.1.15,2013-02-17 18:58:00,
2013-02-17 13:59:00,36.5,19.6,30.26,NNW,338,3.0,7.0,50,0.00,,,0.00,Wunderground v.1.15,2013-02-17 18:59:00,
2013-02-17 14:02:00,36.4,19.0,30.26,NW,326,1.0,6.0,49,0.00,,,0.00,Wunderground v.1.15,2013-02-17 19:02:00,
2013-02-17 14:04:00,36.3,19.4,30.26,North,356,3.0,6.0,50,0.00,,,0.00,Wunderground v.1.15,2013-02-17 19:04:00,
2013-02-17 14:07:00,36.7,20.3,30.26,NNW,346,2.0,6.0,51,0.00,,,0.00,Wunderground v.1.15,2013-02-17 19:07:00,
2013-02-17 14:08:00,36.8,20.3,30.26,NNW,346,0.0,6.0,51,0.00,,,0.00,Wunderground v.1.15,2013-02-17 19:08:00,
2013-02-17 14:09:00,36.8,19.4,30.26,NNW,346,0.0,6.0,49,0.00,,,0.00,Wunderground v.1.15,2013-02-17 19:09:00,
2013-02-17 14:10:00,36.9,19.5,30.26,NNW,342,1.0,2.0,49,0.00,,,0.00,Wunderground v.1.15,2013-02-17 19:10:00,
2013-02-17 14:12:00,37.3,19.9,30.26,WNW,288,5.0,5.0,49,0.00,,,0.00,Wunderground v.1.15,2013-02-17 19:12:00,
2013-02-17 14:13:00,37.4,20.0,30.26,WNW,284,5.0,5.0,49,0.00,,,0.00,Wunderground v.1.15,2013-02-17 19:13:00,
2013-02-17 14:14:00,37.5,20.1,30.26,WNW,284,0.0,5.0,49,0.00,,,0.00,Wunderground v.1.15,2013-02-17 19:14:00,
2013-02-17 14:15:00,37.9,20.4,30.26,West,267,3.0,6.0,49,0.00,,,0.00,Wunderground v.1.15,2013-02-17 19:15:00,
2013-02-17 14:18:00,38.3,20.8,30.25,West,265,3.0,7.0,49,0.00,,,0.00,Wunderground v.1.15,2013-02-17 19:18:00,
2013-02-17 14:19:00,38.3,20.3,30.25,West,264,3.0,7.0,48,0.00,,,0.00,Wunderground v.1.15,2013-02-17 19:19:00,
2013-02-17 14:20:00,38.4,21.4,30.25,SW,226,5.0,5.0,50,0.00,,,0.00,Wunderground v.1.15,2013-02-17 19:20:00,
2013-02-17 14:23:00,38.5,20.5,30.25,SW,228,11.0,11.0,48,0.00,,,0.00,Wunderground v.1.15,2013-02-17 19:23:00,
2013-02-17 14:24:00,38.6,20.6,30.25,SW,226,2.0,11.0,48,0.00,,,0.00,Wunderground v.1.15,2013-02-17 19:24:00,
2013-02-17 14:25:00,38.7,20.7,30.25,SW,227,4.0,11.0,48,0.00,,,0.00,Wunderground v.1.15,2013-02-17 19:25:00,
2013-02-17 14:28:00,38.9,20.9,30.26,SW,232,2.0,11.0,48,0.00,,,0.00,Wunderground v.1.15,2013-02-17 19:28:00,
2013-02-17 14:29:00,38.8,20.8,30.25,SW,234,2.0,11.0,48,0.00,,,0.00,Wunderground v.1.15,2013-02-17 19:29:00,
2013-02-17 14:30:00,38.8,20.8,30.25,West,272,5.0,6.0,48,0.00,,,0.00,Wunderground v.1.15,2013-02-17 19:30:00,
2013-02-17 14:33:00,38.7,20.2,30.25,West,269,4.0,6.0,47,0.00,,,0.00,Wunderground v.1.15,2013-02-17 19:33:00,
2013-02-17 14:34:00,38.6,20.1,30.26,West,269,3.0,6.0,47,0.00,,,0.00,Wunderground v.1.15,2013-02-17 19:34:00,
2013-02-17 14:36:00,38.4,20.4,30.25,West,269,3.0,6.0,48,0.00,,,0.00,Wunderground v.1.15,2013-02-17 19:36:00,
2013-02-17 14:38:00,38.4,20.9,30.25,West,269,9.0,9.0,49,0.00,,,0.00,Wunderground v.1.15,2013-02-17 19:38:00,
2013-02-17 14:39:00,38.1,19.6,30.25,West,267,3.0,10.0,47,0.00,,,0.00,Wunderground v.1.15,2013-02-17 19:39:00,
2013-02-17 14:41:00,37.9,19.4,30.25,West,260,4.0,8.0,47,0.00,,,0.00,Wunderground v.1.15,2013-02-17 19:41:00,
2013-02-17 14:43:00,38.0,19.5,30.25,SSW,213,4.0,9.0,47,0.00,,,0.00,Wunderground v.1.15,2013-02-17 19:43:00,
2013-02-17 14:44:00,38.2,20.2,30.25,SW,229,6.0,10.0,48,0.00,,,0.00,Wunderground v.1.15,2013-02-17 19:44:00,
2013-02-17 14:46:00,38.4,20.4,30.25,SW,226,3.0,10.0,48,0.00,,,0.00,Wunderground v.1.15,2013-02-17 19:46:00,
2013-02-17 14:48:00,38.7,19.7,30.25,SW,230,6.0,10.0,46,0.00,,,0.00,Wunderground v.1.15,2013-02-17 19:48:00,
2013-02-17 14:49:00,39.0,19.9,30.25,WSW,237,2.0,10.0,46,0.00,,,0.00,Wunderground v.1.15,2013-02-17 19:49:00,
2013-02-17 14:51:00,39.3,20.7,30.25,WSW,237,0.0,4.0,47,0.00,,,0.00,Wunderground v.1.15,2013-02-17 19:51:00,
2013-02-17 14:53:00,39.5,19.9,30.25,West,261,3.0,7.0,45,0.00,,,0.00,Wunderground v.1.15,2013-02-17 19:53:00,
2013-02-17 14:54:00,39.6,21.5,30.25,West,261,2.0,7.0,48,0.00,,,0.00,Wunderground v.1.15,2013-02-17 19:54:00,
2013-02-17 14:56:00,39.7,20.6,30.25,West,260,8.0,10.0,46,0.00,,,0.00,Wunderground v.1.15,2013-02-17 19:56:00,
2013-02-17 14:58:00,39.6,20.0,30.25,WNW,288,4.0,10.0,45,0.00,,,0.00,Wunderground v.1.15,2013-02-17 19:58:00,
2013-02-17 14:59:00,39.6,19.5,30.25,WNW,288,3.0,10.0,44,0.00,,,0.00,Wunderground v.1.15,2013-02-17 19:59:00,
2013-02-17 15:00:00,39.6,20.5,30.25,West,278,3.0,5.0,46,0.00,,,0.00,Wunderground v.1.15,2013-02-17 20:00:00,
2013-02-17 15:01:00,39.5,19.4,30.25,West,280,6.0,9.0,44,0.00,,,0.00,Wunderground v.1.15,2013-02-17 20:01:00,
2013-02-17 15:03:00,39.4,20.3,30.25,WNW,288,4.0,9.0,46,0.00,,,0.00,Wunderground v.1.15,2013-02-17 20:03:00,
2013-02-17 15:04:00,39.4,20.3,30.25,WNW,291,3.0,9.0,46,0.00,,,0.00,Wunderground v.1.15,2013-02-17 20:04:00,
2013-02-17 15:05:00,39.3,19.2,30.25,WNW,292,4.0,9.0,44,0.00,,,0.00,Wunderground v.1.15,2013-02-17 20:05:00,
2013-02-17 15:06:00,39.2,18.5,30.25,WNW,285,3.0,9.0,43,0.00,,,0.00,Wunderground v.1.15,2013-02-17 20:06:00,
2013-02-17 15:08:00,39.2,19.1,30.25,WNW,285,2.0,9.0,44,0.00,,,0.00,Wunderground v.1.15,2013-02-17 20:08:00,
2013-02-17 15:09:00,39.2,19.1,30.25,WNW,285,2.0,9.0,44,0.00,,,0.00,Wunderground v.1.15,2013-02-17 20:09:00,
2013-02-17 15:10:00,39.3,18.6,30.25,West,275,4.0,5.0,43,0.00,,,0.00,Wunderground v.1.15,2013-02-17 20:10:00,
2013-02-17 15:12:00,39.3,18.6,30.25,West,278,1.0,5.0,43,0.00,,,0.00,Wunderground v.1.15,2013-02-17 20:12:00,
2013-02-17 15:13:00,39.4,19.8,30.25,WNW,298,2.0,5.0,45,0.00,,,0.00,Wunderground v.1.15,2013-02-17 20:13:00,
2013-02-17 15:14:00,39.4,19.8,30.25,WNW,298,4.0,5.0,45,0.00,,,0.00,Wunderground v.1.15,2013-02-17 20:14:00,
2013-02-17 15:15:00,39.4,19.3,30.25,WNW,296,3.0,5.0,44,0.00,,,0.00,Wunderground v.1.15,2013-02-17 20:15:00,
2013-02-17 15:17:00,39.4,18.7,30.25,WNW,297,3.0,5.0,43,0.00,,,0.00,Wunderground v.1.15,2013-02-17 20:17:00,
2013-02-17 15:18:00,39.6,20.0,30.25,WNW,294,2.0,5.0,45,0.00,,,0.00,Wunderground v.1.15,2013-02-17 20:18:00,
2013-02-17 15:19:00,39.8,20.2,30.25,WNW,294,2.0,5.0,45,0.00,,,0.00,Wunderground v.1.15,2013-02-17 20:19:00,
2013-02-17 15:20:00,40.1,20.4,30.25,WNW,295,4.0,7.0,45,0.00,,,0.00,Wunderground v.1.15,2013-02-17 20:20:00,
2013-02-17 15:22:00,40.3,20.6,30.25,West,267,4.0,7.0,45,0.00,,,0.00,Wunderground v.1.15,2013-02-17 20:22:00,
2013-02-17 15:24:00,40.5,19.7,30.25,West,279,3.0,7.0,43,0.00,,,0.00,Wunderground v.1.15,2013-02-17 20:24:00,
2013-02-17 15:25:00,40.4,19.1,30.25,West,267,4.0,7.0,42,0.00,,,0.00,Wunderground v.1.15,2013-02-17 20:25:00,
2013-02-17 15:27:00,40.3,19.0,30.25,West,269,3.0,7.0,42,0.00,,,0.00,Wunderground v.1.15,2013-02-17 20:27:00,
2013-02-17 15:29:00,40.2,18.9,30.25,West,263,3.0,7.0,42,0.00,,,0.00,Wunderground v.1.15,2013-02-17 20:29:00,
2013-02-17 15:30:00,40.1,18.8,30.25,WSW,257,4.0,5.0,42,0.00,,,0.00,Wunderground v.1.15,2013-02-17 20:30:00,
2013-02-17 15:33:00,40.2,18.3,30.25,WSW,253,2.0,6.0,41,0.00,,,0.00,Wunderground v.1.15,2013-02-17 20:33:00,
2013-02-17 15:34:00,40.3,19.0,30.25,WSW,253,0.0,6.0,42,0.00,,,0.00,Wunderground v.1.15,2013-02-17 20:34:00,
2013-02-17 15:35:00,40.3,19.0,30.24,WSW,253,0.0,6.0,42,0.00,,,0.00,Wunderground v.1.15,2013-02-17 20:35:00,
2013-02-17 15:36:00,40.4,19.6,30.25,West,276,5.0,6.0,43,0.00,,,0.00,Wunderground v.1.15,2013-02-17 20:36:00,
2013-02-17 15:38:00,40.5,19.2,30.24,WSW,244,6.0,9.0,42,0.00,,,0.00,Wunderground v.1.15,2013-02-17 20:38:00,
2013-02-17 15:39:00,40.6,19.3,30.24,WSW,249,3.0,9.0,42,0.00,,,0.00,Wunderground v.1.15,2013-02-17 20:39:00,
2013-02-17 15:40:00,40.6,19.3,30.24,WSW,244,9.0,9.0,42,0.00,,,0.00,Wunderground v.1.15,2013-02-17 20:40:00,
2013-02-17 15:41:00,40.7,19.4,30.24,West,265,5.0,10.0,42,0.00,,,0.00,Wunderground v.1.15,2013-02-17 20:41:00,
2013-02-17 15:43:00,40.4,18.5,30.24,West,266,4.0,10.0,41,0.00,,,0.00,Wunderground v.1.15,2013-02-17 20:43:00,
2013-02-17 15:45:00,40.3,19.0,30.24,WSW,249,3.0,10.0,42,0.00,,,0.00,Wunderground v.1.15,2013-02-17 20:45:00,
2013-02-17 15:46:00,40.3,19.0,30.24,SW,234,2.0,10.0,42,0.00,,,0.00,Wunderground v.1.15,2013-02-17 20:46:00,
2013-02-17 15:48:00,40.3,19.5,30.24,WSW,244,2.0,10.0,43,0.00,,,0.00,Wunderground v.1.15,2013-02-17 20:48:00,
2013-02-17 15:50:00,40.5,19.7,30.24,West,259,3.0,5.0,43,0.00,,,0.00,Wunderground v.1.15,2013-02-17 20:50:00,
2013-02-17 15:51:00,40.4,19.1,30.24,West,273,3.0,6.0,42,0.00,,,0.00,Wunderground v.1.15,2013-02-17 20:51:00,
2013-02-17 15:53:00,40.2,19.5,30.24,West,277,1.0,6.0,43,0.00,,,0.00,Wunderground v.1.15,2013-02-17 20:53:00,
2013-02-17 15:55:00,40.2,20.5,30.24,WNW,284,2.0,6.0,45,0.00,,,0.00,Wunderground v.1.15,2013-02-17 20:55:00,
2013-02-17 15:56:00,40.2,20.0,30.24,WNW,284,2.0,6.0,44,0.00,,,0.00,Wunderground v.1.15,2013-02-17 20:56:00,
2013-02-17 15:58:00,40.3,19.5,30.24,WNW,284,0.0,6.0,43,0.00,,,0.00,Wunderground v.1.15,2013-02-17 20:58:00,
2013-02-17 16:00:00,40.6,20.9,30.24,WNW,284,4.0,4.0,45,0.00,,,0.00,Wunderground v.1.15,2013-02-17 21:00:00,
2013-02-17 16:01:00,40.8,19.5,30.23,WNW,283,0.0,5.0,42,0.00,,,0.00,Wunderground v.1.15,2013-02-17 21:01:00,
2013-02-17 16:03:00,41.0,19.1,30.23,WNW,283,0.0,5.0,41,0.00,,,0.00,Wunderground v.1.15,2013-02-17 21:03:00,
2013-02-17 16:05:00,41.2,19.8,30.23,WNW,282,3.0,5.0,42,0.00,,,0.00,Wunderground v.1.15,2013-02-17 21:05:00,
2013-02-17 16:06:00,41.3,19.9,30.23,West,280,5.0,5.0,42,0.00,,,0.00,Wunderground v.1.15,2013-02-17 21:06:00,
2013-02-17 16:08:00,41.5,18.4,30.24,West,273,3.0,7.0,39,0.00,,,0.00,Wunderground v.1.15,2013-02-17 21:08:00,
2013-02-17 16:10:00,41.6,18.4,30.24,West,274,0.0,2.0,39,0.00,,,0.00,Wunderground v.1.15,2013-02-17 21:10:00,
2013-02-17 16:11:00,41.6,19.0,30.24,West,274,0.0,2.0,40,0.00,,,0.00,Wunderground v.1.15,2013-02-17 21:11:00,
2013-02-17 16:13:00,41.6,18.4,30.23,West,274,4.0,4.0,39,0.00,,,0.00,Wunderground v.1.15,2013-02-17 21:13:00,
2013-02-17 16:16:00,41.3,18.2,30.23,WNW,289,0.0,7.0,39,0.00,,,0.00,Wunderground v.1.15,2013-02-17 21:16:00,
2013-02-17 16:18:00,41.2,18.7,30.23,WSW,246,6.0,11.0,40,0.00,,,0.00,Wunderground v.1.15,2013-02-17 21:18:00,
2013-02-17 16:21:00,40.9,18.4,30.23,WSW,256,5.0,7.0,40,0.00,,,0.00,Wunderground v.1.15,2013-02-17 21:21:00,
2013-02-17 16:22:00,40.8,18.3,30.23,WSW,256,2.0,7.0,40,0.00,,,0.00,Wunderground v.1.15,2013-02-17 21:22:00,
2013-02-17 16:24:00,40.9,19.0,30.23,WSW,255,0.0,7.0,41,0.00,,,0.00,Wunderground v.1.15,2013-02-17 21:24:00,
2013-02-17 16:26:00,41.2,19.2,30.23,WSW,255,3.0,7.0,41,0.00,,,0.00,Wunderground v.1.15,2013-02-17 21:26:00,
2013-02-17 16:27:00,41.3,19.3,30.23,SW,235,6.0,9.0,41,0.00,,,0.00,Wunderground v.1.15,2013-02-17 21:27:00,
2013-02-17 16:29:00,41.5,18.4,30.23,SW,233,5.0,10.0,39,0.00,,,0.00,Wunderground v.1.15,2013-02-17 21:29:00,
2013-02-17 16:31:00,41.5,19.5,30.23,SW,234,3.0,5.0,41,0.00,,,0.00,Wunderground v.1.15,2013-02-17 21:31:00,
2013-02-17 16:32:00,41.5,19.5,30.23,SW,228,4.0,7.0,41,0.00,,,0.00,Wunderground v.1.15,2013-02-17 21:32:00,
2013-02-17 16:34:00,41.6,19.6,30.23,SW,221,6.0,10.0,41,0.00,,,0.00,Wunderground v.1.15,2013-02-17 21:34:00,
2013-02-17 16:36:00,41.7,19.1,30.23,SW,227,1.0,10.0,40,0.00,,,0.00,Wunderground v.1.15,2013-02-17 21:36:00,
2013-02-17 16:37:00,41.8,19.2,30.23,SW,227,2.0,10.0,40,0.00,,,0.00,Wunderground v.1.15,2013-02-17 21:37:00,
2013-02-17 16:39:00,41.9,18.1,30.23,SW,221,3.0,11.0,38,0.00,,,0.00,Wunderground v.1.15,2013-02-17 21:39:00,
2013-02-17 16:41:00,41.9,18.1,30.23,SSW,213,6.0,7.0,38,0.00,,,0.00,Wunderground v.1.15,2013-02-17 21:41:00,
2013-02-17 16:42:00,41.9,18.7,30.23,SSW,212,4.0,7.0,39,0.00,,,0.00,Wunderground v.1.15,2013-02-17 21:42:00,
2013-02-17 16:44:00,42.1,18.3,30.23,SSW,212,5.0,7.0,38,0.00,,,0.00,Wunderground v.1.15,2013-02-17 21:44:00,
2013-02-17 16:47:00,42.2,18.4,30.23,SW,232,3.0,7.0,38,0.00,,,0.00,Wunderground v.1.15,2013-02-17 21:47:00,
2013-02-17 16:48:00,42.2,18.4,30.23,SW,232,0.0,7.0,38,0.00,,,0.00,Wunderground v.1.15,2013-02-17 21:48:00,
2013-02-17 16:50:00,42.1,18.3,30.23,WSW,246,2.0,9.0,38,0.00,,,0.00,Wunderground v.1.15,2013-02-17 21:50:00,
2013-02-17 16:52:00,41.6,18.4,30.23,WSW,245,3.0,5.0,39,0.00,,,0.00,Wunderground v.1.15,2013-02-17 21:52:00,
2013-02-17 16:53:00,41.6,18.4,30.23,WSW,245,3.0,5.0,39,0.00,,,0.00,Wunderground v.1.15,2013-02-17 21:53:00,
2013-02-17 16:55:00,41.5,17.7,30.23,WSW,251,4.0,9.0,38,0.00,,,0.00,Wunderground v.1.15,2013-02-17 21:55:00,
2013-02-17 16:57:00,41.2,17.5,30.23,WSW,251,1.0,9.0,38,0.00,,,0.00,Wunderground v.1.15,2013-02-17 21:57:00,
2013-02-17 16:58:00,41.2,18.1,30.23,WSW,251,4.0,9.0,39,0.00,,,0.00,Wunderground v.1.15,2013-02-17 21:58:00,
2013-02-17 17:00:00,41.3,17.6,30.23,WSW,251,1.0,3.0,38,0.00,,,0.00,Wunderground v.1.15,2013-02-17 22:00:00,
2013-02-17 17:02:00,41.3,17.6,30.23,WSW,251,0.0,4.0,38,0.00,,,0.00,Wunderground v.1.15,2013-02-17 22:02:00,
2013-02-17 17:03:00,41.3,17.6,30.23,WSW,251,3.0,4.0,38,0.00,,,0.00,Wunderground v.1.15,2013-02-17 22:03:00,
2013-02-17 17:05:00,41.1,16.8,30.23,WSW,251,0.0,4.0,37,0.00,,,0.00,Wunderground v.1.15,2013-02-17 22:05:00,
2013-02-17 17:07:00,41.1,16.8,30.23,WSW,251,3.0,4.0,37,0.00,,,0.00,Wunderground v.1.15,2013-02-17 22:07:00,
2013-02-17 17:08:00,41.1,16.8,30.23,WSW,251,3.0,4.0,37,0.00,,,0.00,Wunderground v.1.15,2013-02-17 22:08:00,
2013-02-17 17:10:00,41.3,17.6,30.23,WSW,253,2.0,5.0,38,0.00,,,0.00,Wunderground v.1.15,2013-02-17 22:10:00,
2013-02-17 17:13:00,41.4,17.7,30.23,WSW,251,2.0,5.0,38,0.00,,,0.00,Wunderground v.1.15,2013-02-17 22:13:00,
2013-02-17 17:15:00,41.3,17.6,30.22,WSW,251,1.0,5.0,38,0.00,,,0.00,Wunderground v.1.15,2013-02-17 22:15:00,
2013-02-17 17:18:00,41.1,16.8,30.22,WSW,251,2.0,5.0,37,0.00,,,0.00,Wunderground v.1.15,2013-02-17 22:18:00,
2013-02-17 17:19:00,41.1,16.8,30.22,WSW,251,0.0,5.0,37,0.00,,,0.00,Wunderground v.1.15,2013-02-17 22:19:00,
2013-02-17 17:20:00,41.1,17.4,30.22,WSW,250,4.0,5.0,38,0.00,,,0.00,Wunderground v.1.15,2013-02-17 22:20:00,
2013-02-17 17:23:00,41.1,16.8,30.22,WSW,237,4.0,9.0,37,0.00,,,0.00,Wunderground v.1.15,2013-02-17 22:23:00,
2013-02-17 17:24:00,41.1,17.4,30.22,WSW,237,4.0,9.0,38,0.00,,,0.00,Wunderground v.1.15,2013-02-17 22:24:00,
2013-02-17 17:25:00,41.2,17.5,30.22,WSW,237,2.0,9.0,38,0.00,,,0.00,Wunderground v.1.15,2013-02-17 22:25:00,
2013-02-17 17:28:00,41.2,16.9,30.22,WSW,237,2.0,9.0,37,0.00,,,0.00,Wunderground v.1.15,2013-02-17 22:28:00,
2013-02-17 17:29:00,41.0,16.7,30.22,WSW,237,2.0,9.0,37,0.00,,,0.00,Wunderground v.1.15,2013-02-17 22:29:00,
2013-02-17 17:30:00,40.8,15.9,30.22,WSW,237,3.0,3.0,36,0.00,,,0.00,Wunderground v.1.15,2013-02-17 22:30:00,
2013-02-17 17:33:00,40.5,16.2,30.22,WSW,238,3.0,5.0,37,0.00,,,0.00,Wunderground v.1.15,2013-02-17 22:33:00,
2013-02-17 17:34:00,40.5,16.2,30.22,WSW,237,3.0,5.0,37,0.00,,,0.00,Wunderground v.1.15,2013-02-17 22:34:00,
2013-02-17 17:35:00,40.3,16.1,30.22,WSW,238,2.0,5.0,37,0.00,,,0.00,Wunderground v.1.15,2013-02-17 22:35:00,
2013-02-17 17:36:00,40.2,16.0,30.22,WSW,238,1.0,5.0,37,0.00,,,0.00,Wunderground v.1.15,2013-02-17 22:36:00,
2013-02-17 17:38:00,40.1,15.9,30.22,WSW,246,6.0,6.0,37,0.00,,,0.00,Wunderground v.1.15,2013-02-17 22:38:00,
2013-02-17 17:39:00,40.0,15.8,30.22,WSW,246,2.0,6.0,37,0.00,,,0.00,Wunderground v.1.15,2013-02-17 22:39:00,
2013-02-17 17:40:00,39.9,15.7,30.22,WSW,246,2.0,4.0,37,0.00,,,0.00,Wunderground v.1.15,2013-02-17 22:40:00,
2013-02-17 17:41:00,39.8,15.6,30.22,WSW,246,0.0,4.0,37,0.00,,,0.00,Wunderground v.1.15,2013-02-17 22:41:00,
2013-02-17 17:43:00,39.7,16.1,30.22,WSW,246,3.0,5.0,38,0.00,,,0.00,Wunderground v.1.15,2013-02-17 22:43:00,
2013-02-17 17:44:00,39.7,16.7,30.22,WSW,246,4.0,5.0,39,0.00,,,0.00,Wunderground v.1.15,2013-02-17 22:44:00,
2013-02-17 17:45:00,39.7,16.7,30.22,WSW,246,3.0,5.0,39,0.00,,,0.00,Wunderground v.1.15,2013-02-17 22:45:00,
2013-02-17 17:46:00,39.7,16.1,30.22,WSW,246,1.0,5.0,38,0.00,,,0.00,Wunderground v.1.15,2013-02-17 22:46:00,
2013-02-17 17:48:00,39.8,16.8,30.23,WSW,246,3.0,5.0,39,0.00,,,0.00,Wunderground v.1.15,2013-02-17 22:48:00,
2013-02-17 17:49:00,39.8,16.8,30.23,WSW,246,0.0,5.0,39,0.00,,,0.00,Wunderground v.1.15,2013-02-17 22:49:00,
2013-02-17 17:50:00,39.8,16.8,30.23,WSW,246,0.0,2.0,39,0.00,,,0.00,Wunderground v.1.15,2013-02-17 22:50:00,
2013-02-17 17:51:00,39.8,16.8,30.22,WSW,246,0.0,2.0,39,0.00,,,0.00,Wunderground v.1.15,2013-02-17 22:51:00,
2013-02-17 17:54:00,39.7,16.7,30.23,South,188,2.0,3.0,39,0.00,,,0.00,Wunderground v.1.15,2013-02-17 22:54:00,
2013-02-17 17:56:00,39.6,16.6,30.23,South,189,0.0,4.0,39,0.00,,,0.00,Wunderground v.1.15,2013-02-17 22:56:00,
2013-02-17 17:59:00,39.3,16.4,30.23,South,189,0.0,4.0,39,0.00,,,0.00,Wunderground v.1.15,2013-02-17 22:59:00,
2013-02-17 18:01:00,39.2,16.3,30.23,South,189,0.0,1.0,39,0.00,,,0.00,Wunderground v.1.15,2013-02-17 23:01:00,
2013-02-17 18:04:00,38.9,16.6,30.22,South,189,0.0,1.0,40,0.00,,,0.00,Wunderground v.1.15,2013-02-17 23:04:00,
2013-02-17 18:06:00,38.8,16.5,30.22,South,189,1.0,1.0,40,0.00,,,0.00,Wunderground v.1.15,2013-02-17 23:06:00,
2013-02-17 18:10:00,38.5,16.2,30.22,South,189,0.0,0.0,40,0.00,,,0.00,Wunderground v.1.15,2013-02-17 23:10:00,
2013-02-17 18:11:00,38.4,16.1,30.22,South,189,0.0,0.0,40,0.00,,,0.00,Wunderground v.1.15,2013-02-17 23:11:00,
2013-02-17 18:15:00,38.0,15.8,30.23,South,189,0.0,0.0,40,0.00,,,0.00,Wunderground v.1.15,2013-02-17 23:15:00,
2013-02-17 18:16:00,38.0,16.4,30.23,South,189,0.0,0.0,41,0.00,,,0.00,Wunderground v.1.15,2013-02-17 23:16:00,
2013-02-17 18:20:00,37.6,16.0,30.23,South,189,0.0,0.0,41,0.00,,,0.00,Wunderground v.1.15,2013-02-17 23:20:00,
2013-02-17 18:21:00,37.5,15.9,30.23,South,189,0.0,1.0,41,0.00,,,0.00,Wunderground v.1.15,2013-02-17 23:21:00,
2013-02-17 18:22:00,37.5,15.9,30.23,South,189,0.0,1.0,41,0.00,,,0.00,Wunderground v.1.15,2013-02-17 23:22:00,
2013-02-17 18:25:00,37.1,16.6,30.22,South,189,0.0,1.0,43,0.00,,,0.00,Wunderground v.1.15,2013-02-17 23:25:00,
2013-02-17 18:26:00,36.9,16.5,30.22,South,189,0.0,1.0,43,0.00,,,0.00,Wunderground v.1.15,2013-02-17 23:26:00,
2013-02-17 18:27:00,36.8,16.4,30.22,South,189,0.0,1.0,43,0.00,,,0.00,Wunderground v.1.15,2013-02-17 23:27:00,
2013-02-17 18:30:00,36.4,16.0,30.22,South,189,0.0,0.0,43,0.00,,,0.00,Wunderground v.1.15,2013-02-17 23:30:00,
2013-02-17 18:31:00,36.2,15.8,30.22,South,189,3.0,3.0,43,0.00,,,0.00,Wunderground v.1.15,2013-02-17 23:31:00,
2013-02-17 18:32:00,36.2,15.8,30.22,South,189,2.0,3.0,43,0.00,,,0.00,Wunderground v.1.15,2013-02-17 23:32:00,
2013-02-17 18:35:00,35.8,16.5,30.22,South,189,0.0,3.0,45,0.00,,,0.00,Wunderground v.1.15,2013-02-17 23:35:00,
2013-02-17 18:36:00,35.7,15.9,30.22,South,189,0.0,3.0,44,0.00,,,0.00,Wunderground v.1.15,2013-02-17 23:36:00,
2013-02-17 18:37:00,35.7,15.9,30.22,South,189,0.0,3.0,44,0.00,,,0.00,Wunderground v.1.15,2013-02-17 23:37:00,
2013-02-17 18:40:00,35.3,16.0,30.22,South,189,0.0,0.0,45,0.00,,,0.00,Wunderground v.1.15,2013-02-17 23:40:00,
2013-02-17 18:41:00,35.1,15.9,30.22,South,189,0.0,0.0,45,0.00,,,0.00,Wunderground v.1.15,2013-02-17 23:41:00,
2013-02-17 18:42:00,35.1,15.9,30.22,South,189,0.0,0.0,45,0.00,,,0.00,Wunderground v.1.15,2013-02-17 23:42:00,
2013-02-17 18:45:00,34.7,16.0,30.22,South,189,0.0,0.0,46,0.00,,,0.00,Wunderground v.1.15,2013-02-17 23:45:00,
2013-02-17 18:47:00,34.5,16.3,30.22,South,189,0.0,0.0,47,0.00,,,0.00,Wunderground v.1.15,2013-02-17 23:47:00,
2013-02-17 18:50:00,34.4,16.7,30.22,South,189,0.0,0.0,48,0.00,,,0.00,Wunderground v.1.15,2013-02-17 23:50:00,
2013-02-17 18:52:00,34.2,16.5,30.22,South,189,0.0,0.0,48,0.00,,,0.00,Wunderground v.1.15,2013-02-17 23:52:00,
2013-02-17 18:55:00,33.8,16.6,30.22,South,189,0.0,0.0,49,0.00,,,0.00,Wunderground v.1.15,2013-02-17 23:55:00,
2013-02-17 18:57:00,33.7,17.0,30.22,South,189,0.0,1.0,50,0.00,,,0.00,Wunderground v.1.15,2013-02-17 23:57:00,
2013-02-17 19:01:00,33.2,17.5,30.22,South,189,2.0,2.0,52,0.00,,,0.00,Wunderground v.1.15,2013-02-18 00:01:00,
2013-02-17 19:02:00,33.1,17.4,30.22,South,189,0.0,2.0,52,0.00,,,0.00,Wunderground v.1.15,2013-02-18 00:02:00,
2013-02-17 19:06:00,32.7,17.0,30.22,South,189,3.0,3.0,52,0.00,,,0.00,Wunderground v.1.15,2013-02-18 00:06:00,
2013-02-17 19:07:00,32.6,17.3,30.22,South,189,2.0,3.0,53,0.00,,,0.00,Wunderground v.1.15,2013-02-18 00:07:00,
2013-02-17 19:11:00,32.1,16.9,30.22,South,189,1.0,2.0,53,0.00,,,0.00,Wunderground v.1.15,2013-02-18 00:11:00,
2013-02-17 19:12:00,32.1,16.9,30.22,South,189,0.0,2.0,53,0.00,,,0.00,Wunderground v.1.15,2013-02-18 00:12:00,
2013-02-17 19:16:00,31.6,17.3,30.22,South,189,1.0,2.0,55,0.00,,,0.00,Wunderground v.1.15,2013-02-18 00:16:00,
2013-02-17 19:17:00,31.6,17.3,30.21,South,189,1.0,2.0,55,0.00,,,0.00,Wunderground v.1.15,2013-02-18 00:17:00,
2013-02-17 19:18:00,31.6,17.3,30.21,South,189,1.0,2.0,55,0.00,,,0.00,Wunderground v.1.15,2013-02-18 00:18:00,
2013-02-17 19:21:00,31.2,16.9,30.22,South,189,1.0,3.0,55,0.00,,,0.00,Wunderground v.1.15,2013-02-18 00:21:00,
2013-02-17 19:22:00,31.2,16.9,30.22,South,189,1.0,3.0,55,0.00,,,0.00,Wunderground v.1.15,2013-02-18 00:22:00,
2013-02-17 19:23:00,31.1,16.8,30.22,South,189,2.0,3.0,55,0.00,,,0.00,Wunderground v.1.15,2013-02-18 00:23:00,
2013-02-17 19:27:00,30.8,16.9,30.21,South,189,1.0,3.0,56,0.00,,,0.00,Wunderground v.1.15,2013-02-18 00:27:00,
2013-02-17 19:28:00,30.7,16.8,30.21,South,189,1.0,3.0,56,0.00,,,0.00,Wunderground v.1.15,2013-02-18 00:28:00,
2013-02-17 19:32:00,30.3,16.5,30.21,South,189,0.0,2.0,56,0.00,,,0.00,Wunderground v.1.15,2013-02-18 00:32:00,
2013-02-17 19:33:00,30.3,16.5,30.21,South,189,0.0,2.0,56,0.00,,,0.00,Wunderground v.1.15,2013-02-18 00:33:00,
2013-02-17 19:37:00,30.1,16.7,30.21,South,189,0.0,2.0,57,0.00,,,0.00,Wunderground v.1.15,2013-02-18 00:37:00,
2013-02-17 19:38:00,30.0,16.6,30.21,South,189,0.0,2.0,57,0.00,,,0.00,Wunderground v.1.15,2013-02-18 00:38:00,
2013-02-17 19:42:00,29.8,16.8,30.22,South,189,2.0,3.0,58,0.00,,,0.00,Wunderground v.1.15,2013-02-18 00:42:00,
2013-02-17 19:43:00,29.7,17.1,30.22,South,189,3.0,3.0,59,0.00,,,0.00,Wunderground v.1.15,2013-02-18 00:43:00,
2013-02-17 19:47:00,29.4,17.2,30.21,South,189,2.0,3.0,60,0.00,,,0.00,Wunderground v.1.15,2013-02-18 00:47:00,
2013-02-17 19:48:00,29.4,17.6,30.21,South,189,2.0,3.0,61,0.00,,,0.00,Wunderground v.1.15,2013-02-18 00:48:00,
2013-02-17 19:52:00,29.1,17.3,30.21,South,189,0.0,2.0,61,0.00,,,0.00,Wunderground v.1.15,2013-02-18 00:52:00,
2013-02-17 19:53:00,29.0,17.2,30.21,South,189,0.0,2.0,61,0.00,,,0.00,Wunderground v.1.15,2013-02-18 00:53:00,
2013-02-17 19:57:00,28.8,17.4,30.21,South,189,0.0,2.0,62,0.00,,,0.00,Wunderground v.1.15,2013-02-18 00:57:00,
2013-02-17 19:58:00,28.8,17.8,30.21,South,189,0.0,2.0,63,0.00,,,0.00,Wunderground v.1.15,2013-02-18 00:58:00,
2013-02-17 19:59:00,28.8,17.8,30.21,South,189,0.0,2.0,63,0.00,,,0.00,Wunderground v.1.15,2013-02-18 00:59:00,
2013-02-17 20:03:00,28.6,17.6,30.21,South,189,2.0,2.0,63,0.00,,,0.00,Wunderground v.1.15,2013-02-18 01:03:00,
2013-02-17 20:04:00,28.6,17.6,30.21,South,189,0.0,2.0,63,0.00,,,0.00,Wunderground v.1.15,2013-02-18 01:04:00,
2013-02-17 20:07:00,28.4,17.8,30.21,South,189,0.0,2.0,64,0.00,,,0.00,Wunderground v.1.15,2013-02-18 01:07:00,
2013-02-17 20:08:00,28.4,17.8,30.21,South,189,2.0,2.0,64,0.00,,,0.00,Wunderground v.1.15,2013-02-18 01:08:00,
2013-02-17 20:09:00,28.3,18.0,30.22,South,189,2.0,2.0,65,0.00,,,0.00,Wunderground v.1.15,2013-02-18 01:09:00,
2013-02-17 20:12:00,28.2,17.9,30.22,South,189,0.0,2.0,65,0.00,,,0.00,Wunderground v.1.15,2013-02-18 01:12:00,
2013-02-17 20:13:00,28.1,17.8,30.21,South,189,0.0,2.0,65,0.00,,,0.00,Wunderground v.1.15,2013-02-18 01:13:00,
2013-02-17 20:14:00,28.1,17.8,30.22,South,189,2.0,2.0,65,0.00,,,0.00,Wunderground v.1.15,2013-02-18 01:14:00,
2013-02-17 20:18:00,27.9,17.6,30.21,South,189,2.0,3.0,65,0.00,,,0.00,Wunderground v.1.15,2013-02-18 01:18:00,
2013-02-17 20:19:00,27.9,18.0,30.21,South,189,3.0,3.0,66,0.00,,,0.00,Wunderground v.1.15,2013-02-18 01:19:00,
2013-02-17 20:23:00,27.8,17.9,30.21,South,189,3.0,4.0,66,0.00,,,0.00,Wunderground v.1.15,2013-02-18 01:23:00,
2013-02-17 20:25:00,27.7,17.8,30.21,South,189,2.0,4.0,66,0.00,,,0.00,Wunderground v.1.15,2013-02-18 01:25:00,
2013-02-17 20:28:00,27.7,17.8,30.21,South,188,2.0,5.0,66,0.00,,,0.00,Wunderground v.1.15,2013-02-18 01:28:00,
2013-02-17 20:30:00,27.7,17.8,30.21,South,188,3.0,5.0,66,0.00,,,0.00,Wunderground v.1.15,2013-02-18 01:30:00,
2013-02-17 20:33:00,27.6,17.7,30.21,South,188,3.0,4.0,66,0.00,,,0.00,Wunderground v.1.15,2013-02-18 01:33:00,
2013-02-17 20:34:00,27.6,17.7,30.21,South,188,2.0,4.0,66,0.00,,,0.00,Wunderground v.1.15,2013-02-18 01:34:00,
2013-02-17 20:35:00,27.6,17.7,30.21,South,188,2.0,4.0,66,0.00,,,0.00,Wunderground v.1.15,2013-02-18 01:35:00,
2013-02-17 20:38:00,27.6,17.7,30.21,SSE,147,2.0,5.0,66,0.00,,,0.00,Wunderground v.1.15,2013-02-18 01:38:00,
2013-02-17 20:39:00,27.5,17.6,30.21,SSE,147,0.0,5.0,66,0.00,,,0.00,Wunderground v.1.15,2013-02-18 01:39:00,
2013-02-17 20:40:00,27.6,17.7,30.21,SSE,148,3.0,5.0,66,0.00,,,0.00,Wunderground v.1.15,2013-02-18 01:40:00,
2013-02-17 20:43:00,27.5,18.0,30.21,SSE,147,3.0,5.0,67,0.00,,,0.00,Wunderground v.1.15,2013-02-18 01:43:00,
2013-02-17 20:44:00,27.5,18.0,30.21,SSE,148,2.0,5.0,67,0.00,,,0.00,Wunderground v.1.15,2013-02-18 01:44:00,
2013-02-17 20:45:00,27.5,18.0,30.21,SSE,147,2.0,5.0,67,0.00,,,0.00,Wunderground v.1.15,2013-02-18 01:45:00,
2013-02-17 20:48:00,27.4,17.9,30.21,SSE,147,2.0,5.0,67,0.00,,,0.00,Wunderground v.1.15,2013-02-18 01:48:00,
2013-02-17 20:49:00,27.4,17.9,30.21,SSE,148,2.0,5.0,67,0.00,,,0.00,Wunderground v.1.15,2013-02-18 01:49:00,
2013-02-17 20:50:00,27.4,17.9,30.21,SSE,147,3.0,5.0,67,0.00,,,0.00,Wunderground v.1.15,2013-02-18 01:50:00,
2013-02-17 20:53:00,27.3,18.1,30.21,SSE,148,2.0,4.0,68,0.00,,,0.00,Wunderground v.1.15,2013-02-18 01:53:00,
2013-02-17 20:54:00,27.2,18.0,30.21,SSE,148,0.0,4.0,68,0.00,,,0.00,Wunderground v.1.15,2013-02-18 01:54:00,
2013-02-17 20:55:00,27.2,18.0,30.21,SSE,148,2.0,4.0,68,0.00,,,0.00,Wunderground v.1.15,2013-02-18 01:55:00,
2013-02-17 20:58:00,27.1,17.9,30.21,SSE,148,3.0,4.0,68,0.00,,,0.00,Wunderground v.1.15,2013-02-18 01:58:00,
2013-02-17 20:59:00,27.1,17.9,30.21,SSE,148,2.0,4.0,68,0.00,,,0.00,Wunderground v.1.15,2013-02-18 01:59:00,
2013-02-17 21:00:00,27.1,18.3,30.21,SSE,148,2.0,3.0,69,0.00,,,0.00,Wunderground v.1.15,2013-02-18 02:00:00,
2013-02-17 21:03:00,27.0,18.2,30.21,SSE,147,0.0,3.0,69,0.00,,,0.00,Wunderground v.1.15,2013-02-18 02:03:00,
2013-02-17 21:04:00,27.0,18.2,30.21,SSE,148,0.0,3.0,69,0.00,,,0.00,Wunderground v.1.15,2013-02-18 02:04:00,
2013-02-17 21:05:00,26.9,18.1,30.21,SSE,148,2.0,3.0,69,0.00,,,0.00,Wunderground v.1.15,2013-02-18 02:05:00,
2013-02-17 21:09:00,26.8,18.0,30.21,SSE,147,2.0,3.0,69,0.00,,,0.00,Wunderground v.1.15,2013-02-18 02:09:00,
2013-02-17 21:10:00,26.8,18.0,30.21,SSE,148,0.0,1.0,69,0.00,,,0.00,Wunderground v.1.15,2013-02-18 02:10:00,
2013-02-17 21:14:00,26.7,18.2,30.21,SSE,148,0.0,1.0,70,0.00,,,0.00,Wunderground v.1.15,2013-02-18 02:14:00,
2013-02-17 21:15:00,26.6,18.1,30.21,SSE,147,0.0,2.0,70,0.00,,,0.00,Wunderground v.1.15,2013-02-18 02:15:00,
2013-02-17 21:19:00,26.5,18.4,30.21,SSE,148,2.0,3.0,71,0.00,,,0.00,Wunderground v.1.15,2013-02-18 02:19:00,
2013-02-17 21:21:00,26.4,18.3,30.21,SSE,147,3.0,3.0,71,0.00,,,0.00,Wunderground v.1.15,2013-02-18 02:21:00,
2013-02-17 21:24:00,26.3,18.2,30.21,SSE,147,3.0,3.0,71,0.00,,,0.00,Wunderground v.1.15,2013-02-18 02:24:00,
2013-02-17 21:25:00,26.3,18.2,30.21,SSE,147,2.0,3.0,71,0.00,,,0.00,Wunderground v.1.15,2013-02-18 02:25:00,
2013-02-17 21:26:00,26.2,18.1,30.21,SSE,148,1.0,3.0,71,0.00,,,0.00,Wunderground v.1.15,2013-02-18 02:26:00,
2013-02-17 21:29:00,26.2,18.1,30.21,SSE,147,3.0,3.0,71,0.00,,,0.00,Wunderground v.1.15,2013-02-18 02:29:00,
2013-02-17 21:30:00,26.2,18.1,30.21,SSE,148,2.0,2.0,71,0.00,,,0.00,Wunderground v.1.15,2013-02-18 02:30:00,
2013-02-17 21:31:00,26.2,18.1,30.21,SSE,147,3.0,3.0,71,0.00,,,0.00,Wunderground v.1.15,2013-02-18 02:31:00,
2013-02-17 21:34:00,26.1,18.0,30.21,SSE,147,2.0,4.0,71,0.00,,,0.00,Wunderground v.1.15,2013-02-18 02:34:00,
2013-02-17 21:35:00,26.1,18.0,30.21,SSE,147,3.0,4.0,71,0.00,,,0.00,Wunderground v.1.15,2013-02-18 02:35:00,
2013-02-17 21:36:00,26.1,18.0,30.21,SSE,148,2.0,4.0,71,0.00,,,0.00,Wunderground v.1.15,2013-02-18 02:36:00,
2013-02-17 21:39:00,26.1,18.0,30.22,SSE,148,1.0,4.0,71,0.00,,,0.00,Wunderground v.1.15,2013-02-18 02:39:00,
2013-02-17 21:40:00,26.1,18.0,30.22,SSE,147,2.0,2.0,71,0.00,,,0.00,Wunderground v.1.15,2013-02-18 02:40:00,
2013-02-17 21:41:00,26.2,18.1,30.22,SSE,147,2.0,3.0,71,0.00,,,0.00,Wunderground v.1.15,2013-02-18 02:41:00,
2013-02-17 21:42:00,26.2,18.1,30.21,SSE,147,1.0,3.0,71,0.00,,,0.00,Wunderground v.1.15,2013-02-18 02:42:00,
2013-02-17 21:44:00,26.2,17.7,30.21,SSE,147,1.0,3.0,70,0.00,,,0.00,Wunderground v.1.15,2013-02-18 02:44:00,
2013-02-17 21:45:00,26.2,17.7,30.21,SSE,148,2.0,3.0,70,0.00,,,0.00,Wunderground v.1.15,2013-02-18 02:45:00,
2013-02-17 21:46:00,26.2,17.7,30.21,SSE,147,3.0,3.0,70,0.00,,,0.00,Wunderground v.1.15,2013-02-18 02:46:00,
2013-02-17 21:47:00,26.2,17.7,30.22,SSE,147,2.0,3.0,70,0.00,,,0.00,Wunderground v.1.15,2013-02-18 02:47:00,
2013-02-17 21:49:00,26.2,18.1,30.22,SSE,147,3.0,3.0,71,0.00,,,0.00,Wunderground v.1.15,2013-02-18 02:49:00,
2013-02-17 21:50:00,26.2,18.1,30.22,SSE,148,3.0,4.0,71,0.00,,,0.00,Wunderground v.1.15,2013-02-18 02:50:00,
2013-02-17 21:51:00,26.2,17.7,30.21,SSE,147,3.0,4.0,70,0.00,,,0.00,Wunderground v.1.15,2013-02-18 02:51:00,
2013-02-17 21:52:00,26.2,17.7,30.21,SSE,148,2.0,4.0,70,0.00,,,0.00,Wunderground v.1.15,2013-02-18 02:52:00,
2013-02-17 21:55:00,26.2,18.1,30.21,SSE,148,3.0,4.0,71,0.00,,,0.00,Wunderground v.1.15,2013-02-18 02:55:00,
2013-02-17 21:56:00,26.2,18.1,30.22,SSE,147,3.0,4.0,71,0.00,,,0.00,Wunderground v.1.15,2013-02-18 02:56:00,
2013-02-17 21:57:00,26.3,18.2,30.22,SSE,147,2.0,4.0,71,0.00,,,0.00,Wunderground v.1.15,2013-02-18 02:57:00,
2013-02-17 22:00:00,26.2,18.1,30.22,SSE,148,1.0,3.0,71,0.00,,,0.00,Wunderground v.1.15,2013-02-18 03:00:00,
2013-02-17 22:01:00,26.2,18.1,30.22,SSE,147,1.0,3.0,71,0.00,,,0.00,Wunderground v.1.15,2013-02-18 03:01:00,
2013-02-17 22:03:00,26.2,18.1,30.22,SSE,148,0.0,3.0,71,0.00,,,0.00,Wunderground v.1.15,2013-02-18 03:03:00,
2013-02-17 22:05:00,26.2,18.1,30.22,SSE,147,3.0,3.0,71,0.00,,,0.00,Wunderground v.1.15,2013-02-18 03:05:00,
2013-02-17 22:06:00,26.2,18.1,30.22,SSE,147,2.0,3.0,71,0.00,,,0.00,Wunderground v.1.15,2013-02-18 03:06:00,
2013-02-17 22:08:00,26.2,18.1,30.22,SSE,148,0.0,3.0,71,0.00,,,0.00,Wunderground v.1.15,2013-02-18 03:08:00,
2013-02-17 22:10:00,26.1,18.0,30.22,SSE,147,0.0,1.0,71,0.00,,,0.00,Wunderground v.1.15,2013-02-18 03:10:00,
2013-02-17 22:11:00,26.2,18.1,30.22,SSE,147,0.0,1.0,71,0.00,,,0.00,Wunderground v.1.15,2013-02-18 03:11:00,
2013-02-17 22:13:00,26.1,18.3,30.22,SSE,147,0.0,2.0,72,0.00,,,0.00,Wunderground v.1.15,2013-02-18 03:13:00,
2013-02-17 22:15:00,26.1,18.3,30.22,SSE,148,0.0,2.0,72,0.00,,,0.00,Wunderground v.1.15,2013-02-18 03:15:00,
2013-02-17 22:16:00,26.1,18.3,30.22,SSE,148,1.0,2.0,72,0.00,,,0.00,Wunderground v.1.15,2013-02-18 03:16:00,
2013-02-17 22:18:00,26.1,18.3,30.22,SSE,147,1.0,2.0,72,0.00,,,0.00,Wunderground v.1.15,2013-02-18 03:18:00,
2013-02-17 22:20:00,26.1,18.0,30.22,SSE,147,1.0,2.0,71,0.00,,,0.00,Wunderground v.1.15,2013-02-18 03:20:00,
2013-02-17 22:21:00,26.1,18.0,30.22,SSE,147,2.0,2.0,71,0.00,,,0.00,Wunderground v.1.15,2013-02-18 03:21:00,
2013-02-17 22:23:00,26.1,18.0,30.22,SSE,147,2.0,3.0,71,0.00,,,0.00,Wunderground v.1.15,2013-02-18 03:23:00,
2013-02-17 22:25:00,26.2,18.1,30.22,SSE,147,2.0,3.0,71,0.00,,,0.00,Wunderground v.1.15,2013-02-18 03:25:00,
2013-02-17 22:26:00,26.2,18.1,30.22,SSE,148,2.0,3.0,71,0.00,,,0.00,Wunderground v.1.15,2013-02-18 03:26:00,
2013-02-17 22:28:00,26.2,18.1,30.22,SSE,148,2.0,3.0,71,0.00,,,0.00,Wunderground v.1.15,2013-02-18 03:28:00,
2013-02-17 22:30:00,26.2,17.7,30.22,SSE,147,3.0,3.0,70,0.00,,,0.00,Wunderground v.1.15,2013-02-18 03:30:00,
2013-02-17 22:31:00,26.2,17.7,30.22,SSE,147,3.0,3.0,70,0.00,,,0.00,Wunderground v.1.15,2013-02-18 03:31:00,
2013-02-17 22:33:00,26.2,17.7,30.22,SSE,148,2.0,3.0,70,0.00,,,0.00,Wunderground v.1.15,2013-02-18 03:33:00,
2013-02-17 22:36:00,26.3,18.2,30.22,SSE,148,2.0,4.0,71,0.00,,,0.00,Wunderground v.1.15,2013-02-18 03:36:00,
2013-02-17 22:37:00,26.3,18.2,30.22,SSE,147,2.0,4.0,71,0.00,,,0.00,Wunderground v.1.15,2013-02-18 03:37:00,
2013-02-17 22:38:00,26.3,18.2,30.22,SSE,148,3.0,4.0,71,0.00,,,0.00,Wunderground v.1.15,2013-02-18 03:38:00,
2013-02-17 22:41:00,26.3,18.2,30.22,SSE,147,4.0,4.0,71,0.00,,,0.00,Wunderground v.1.15,2013-02-18 03:41:00,
2013-02-17 22:42:00,26.2,18.1,30.22,SSE,147,3.0,4.0,71,0.00,,,0.00,Wunderground v.1.15,2013-02-18 03:42:00,
2013-02-17 22:43:00,26.2,18.1,30.22,SSE,148,2.0,4.0,71,0.00,,,0.00,Wunderground v.1.15,2013-02-18 03:43:00,
2013-02-17 22:46:00,26.3,18.2,30.22,SSE,147,2.0,4.0,71,0.00,,,0.00,Wunderground v.1.15,2013-02-18 03:46:00,
2013-02-17 22:47:00,26.2,18.1,30.22,SSE,148,2.0,4.0,71,0.00,,,0.00,Wunderground v.1.15,2013-02-18 03:47:00,
2013-02-17 22:48:00,26.2,18.1,30.22,SSE,148,3.0,4.0,71,0.00,,,0.00,Wunderground v.1.15,2013-02-18 03:48:00,
2013-02-17 22:51:00,26.2,18.1,30.22,SSE,147,3.0,4.0,71,0.00,,,0.00,Wunderground v.1.15,2013-02-18 03:51:00,
2013-02-17 22:52:00,26.2,18.1,30.22,SSE,147,3.0,4.0,71,0.00,,,0.00,Wunderground v.1.15,2013-02-18 03:52:00,
2013-02-17 22:53:00,26.2,18.1,30.21,SSE,147,3.0,4.0,71,0.00,,,0.00,Wunderground v.1.15,2013-02-18 03:53:00,
2013-02-17 22:56:00,26.2,18.1,30.21,SSE,147,3.0,4.0,71,0.00,,,0.00,Wunderground v.1.15,2013-02-18 03:56:00,
2013-02-17 22:57:00,26.2,18.1,30.21,SSE,148,2.0,4.0,71,0.00,,,0.00,Wunderground v.1.15,2013-02-18 03:57:00,
2013-02-17 22:58:00,26.2,18.1,30.21,SSE,147,2.0,4.0,71,0.00,,,0.00,Wunderground v.1.15,2013-02-18 03:58:00,
2013-02-17 23:01:00,26.2,17.7,30.21,SSE,148,3.0,4.0,70,0.00,,,0.00,Wunderground v.1.15,2013-02-18 04:01:00,
2013-02-17 23:02:00,26.2,18.1,30.21,SSE,148,3.0,4.0,71,0.00,,,0.00,Wunderground v.1.15,2013-02-18 04:02:00,
2013-02-17 23:04:00,26.2,18.1,30.21,SSE,147,3.0,4.0,71,0.00,,,0.00,Wunderground v.1.15,2013-02-18 04:04:00,
2013-02-17 23:06:00,26.2,18.1,30.21,SSE,148,3.0,4.0,71,0.00,,,0.00,Wunderground v.1.15,2013-02-18 04:06:00,
2013-02-17 23:07:00,26.2,18.1,30.21,SSE,147,3.0,5.0,71,0.00,,,0.00,Wunderground v.1.15,2013-02-18 04:07:00,
2013-02-17 23:09:00,26.2,18.1,30.21,SSE,147,3.0,5.0,71,0.00,,,0.00,Wunderground v.1.15,2013-02-18 04:09:00,
2013-02-17 23:12:00,26.2,18.1,30.22,SSE,147,3.0,4.0,71,0.00,,,0.00,Wunderground v.1.15,2013-02-18 04:12:00,
2013-02-17 23:13:00,26.3,18.2,30.22,SSE,147,4.0,4.0,71,0.00,,,0.00,Wunderground v.1.15,2013-02-18 04:13:00,
2013-02-17 23:14:00,26.3,18.2,30.21,SSE,147,3.0,4.0,71,0.00,,,0.00,Wunderground v.1.15,2013-02-18 04:14:00,
2013-02-17 23:17:00,26.4,18.3,30.21,SSE,147,3.0,4.0,71,0.00,,,0.00,Wunderground v.1.15,2013-02-18 04:17:00,
2013-02-17 23:18:00,26.4,18.3,30.21,SSE,147,2.0,4.0,71,0.00,,,0.00,Wunderground v.1.15,2013-02-18 04:18:00,
2013-02-17 23:19:00,26.4,18.3,30.21,SSE,147,3.0,4.0,71,0.00,,,0.00,Wunderground v.1.15,2013-02-18 04:19:00,
2013-02-17 23:22:00,26.5,18.4,30.21,SSE,147,3.0,4.0,71,0.00,,,0.00,Wunderground v.1.15,2013-02-18 04:22:00,
2013-02-17 23:23:00,26.5,18.4,30.21,SSE,147,3.0,4.0,71,0.00,,,0.00,Wunderground v.1.15,2013-02-18 04:23:00,
2013-02-17 23:24:00,26.5,18.0,30.21,SSE,147,2.0,4.0,70,0.00,,,0.00,Wunderground v.1.15,2013-02-18 04:24:00,
2013-02-17 23:25:00,26.5,18.0,30.21,SSE,147,2.0,4.0,70,0.00,,,0.00,Wunderground v.1.15,2013-02-18 04:25:00,
2013-02-17 23:27:00,26.6,18.1,30.21,SSE,147,1.0,4.0,70,0.00,,,0.00,Wunderground v.1.15,2013-02-18 04:27:00,
2013-02-17 23:28:00,26.6,18.1,30.21,SSE,147,2.0,4.0,70,0.00,,,0.00,Wunderground v.1.15,2013-02-18 04:28:00,
2013-02-17 23:29:00,26.6,18.1,30.21,SSE,147,2.0,4.0,70,0.00,,,0.00,Wunderground v.1.15,2013-02-18 04:29:00,
2013-02-17 23:30:00,26.6,18.1,30.21,SSE,147,3.0,3.0,70,0.00,,,0.00,Wunderground v.1.15,2013-02-18 04:30:00,
2013-02-17 23:33:00,26.7,18.2,30.21,SSE,147,3.0,3.0,70,0.00,,,0.00,Wunderground v.1.15,2013-02-18 04:33:00,
2013-02-17 23:34:00,26.6,18.1,30.21,SSE,147,2.0,3.0,70,0.00,,,0.00,Wunderground v.1.15,2013-02-18 04:34:00,
2013-02-17 23:35:00,26.6,17.8,30.21,SSE,147,3.0,5.0,69,0.00,,,0.00,Wunderground v.1.15,2013-02-18 04:35:00,
2013-02-17 23:38:00,26.7,17.9,30.21,SSE,147,2.0,5.0,69,0.00,,,0.00,Wunderground v.1.15,2013-02-18 04:38:00,
2013-02-17 23:39:00,26.6,17.8,30.21,SSE,147,2.0,6.0,69,0.00,,,0.00,Wunderground v.1.15,2013-02-18 04:39:00,
2013-02-17 23:40:00,26.6,17.8,30.21,SSE,151,2.0,5.0,69,0.00,,,0.00,Wunderground v.1.15,2013-02-18 04:40:00,
2013-02-17 23:43:00,26.7,17.9,30.21,SSE,151,2.0,5.0,69,0.00,,,0.00,Wunderground v.1.15,2013-02-18 04:43:00,
2013-02-17 23:44:00,26.7,17.9,30.21,SSE,150,1.0,5.0,69,0.00,,,0.00,Wunderground v.1.15,2013-02-18 04:44:00,
2013-02-17 23:45:00,26.7,17.9,30.21,SSE,150,3.0,5.0,69,0.00,,,0.00,Wunderground v.1.15,2013-02-18 04:45:00,
2013-02-17 23:48:00,26.7,17.6,30.21,SSE,151,2.0,5.0,68,0.00,,,0.00,Wunderground v.1.15,2013-02-18 04:48:00,
2013-02-17 23:49:00,26.7,17.6,30.21,SSE,150,2.0,5.0,68,0.00,,,0.00,Wunderground v.1.15,2013-02-18 04:49:00,
2013-02-17 23:50:00,26.7,17.6,30.21,SSE,151,2.0,3.0,68,0.00,,,0.00,Wunderground v.1.15,2013-02-18 04:50:00,
2013-02-17 23:53:00,26.7,17.6,30.21,SSE,150,3.0,4.0,68,0.00,,,0.00,Wunderground v.1.15,2013-02-18 04:53:00,
2013-02-17 23:55:00,26.7,17.6,30.21,SSE,150,2.0,4.0,68,0.00,,,0.00,Wunderground v.1.15,2013-02-18 04:55:00,
2013-02-17 23:58:00,26.9,17.4,30.21,SSE,151,2.0,4.0,67,0.00,,,0.00,Wunderground v.1.15,2013-02-18 04:58:00,